Observation data for Fort Lewis CO on 12/09/2018      Previous  Date       Current Mesonet Observations  Soil Data  Daily Summary Page  Observations in Plain Language
KFL1 090600Z 04003KT M06/M07 A3036 RMK A01 T10601066  RH  096%=      5-min Rain = 0
KFL1 090601Z 04004KT M06/M06 A3036 RMK A01 T10581063  RH  096%=      5-min Rain = 0
KFL1 090602Z 03004KT M06/M06 A3036 RMK A01 T10581064  RH  096%=      5-min Rain = 0
KFL1 090603Z 03004KT M06/M07 A3036 RMK A01 T10631071  RH  094%=      5-min Rain = 0
KFL1 090604Z 03004KT M07/M08 A3036 RMK A01 T10671077  RH  093%=      5-min Rain = 0
KFL1 090605Z 04003KT M07/M08 A3036 RMK A01 T10701080  RH  092%=      5-min Rain = 0
KFL1 090606Z 05003KT M07/M08 A3036 RMK A01 T10711081  RH  092%=      5-min Rain = 0
KFL1 090607Z 05003KT M07/M08 A3036 RMK A01 T10731083  RH  093%=      5-min Rain = 0
KFL1 090608Z 06004KT M07/M08 A3036 RMK A01 T10741082  RH  094%=      5-min Rain = 0
KFL1 090609Z 06003KT M07/M08 A3036 RMK A01 T10731080  RH  095%=      5-min Rain = 0
KFL1 090610Z 06002KT M07/M08 A3036 RMK A01 T10711076  RH  097%=      5-min Rain = 0
KFL1 090611Z 07002KT M07/M07 A3036 RMK A01 T10671070  RH  098%=      5-min Rain = 0
KFL1 090612Z 07002KT M07/M07 A3036 RMK A01 T10661068  RH  098%=      5-min Rain = 0
KFL1 090613Z 05003KT M06/M06 A3036 RMK A01 T10621064  RH  099%=      5-min Rain = 0
KFL1 090614Z 04004KT M06/M07 A3036 RMK A01 T10631065  RH  099%=      5-min Rain = 0
KFL1 090615Z 05004KT M06/M07 A3036 RMK A01 T10631065  RH  099%=      5-min Rain = 0
KFL1 090616Z 05004KT M06/M06 A3036 RMK A01 T10621064  RH  099%=      5-min Rain = 0
KFL1 090617Z 05004KT M06/M06 A3036 RMK A01 T10601062  RH  099%=      5-min Rain = 0
KFL1 090618Z 05004KT M06/M06 A3036 RMK A01 T10611063  RH  099%=      5-min Rain = 0
KFL1 090619Z 05004KT M06/M06 A3036 RMK A01 T10611062  RH  099%=      5-min Rain = 0
KFL1 090620Z 04003KT M06/M06 A3036 RMK A01 T10591060  RH  099%=      5-min Rain = 0
KFL1 090621Z 04003KT M06/M06 A3036 RMK A01 T10581059  RH  099%=      5-min Rain = 0
KFL1 090622Z 03003KT M06/M06 A3036 RMK A01 T10591061  RH  099%=      5-min Rain = 0
KFL1 090623Z 03004KT M06/M06 A3036 RMK A01 T10581060  RH  099%=      5-min Rain = 0
KFL1 090624Z 03003KT M06/M06 A3036 RMK A01 T10591061  RH  099%=      5-min Rain = 0
KFL1 090625Z 03003KT M06/M07 A3036 RMK A01 T10641066  RH  098%=      5-min Rain = 0
KFL1 090626Z 02004KT M07/M07 A3036 RMK A01 T10671071  RH  098%=      5-min Rain = 0
KFL1 090627Z 02004KT M07/M07 A3036 RMK A01 T10691072  RH  097%=      5-min Rain = 0
KFL1 090628Z 03004KT M07/M08 A3036 RMK A01 T10721076  RH  097%=      5-min Rain = 0
KFL1 090629Z 05004KT M08/M08 A3036 RMK A01 T10751080  RH  096%=      5-min Rain = 0
KFL1 090630Z 05003KT M08/M08 A3036 RMK A01 T10751079  RH  097%=      5-min Rain = 0
KFL1 090631Z 08002KT M07/M08 A3036 RMK A01 T10731076  RH  097%=      5-min Rain = 0
KFL1 090632Z 07003KT M07/M07 A3036 RMK A01 T10701074  RH  098%=      5-min Rain = 0
KFL1 090633Z 05004KT M07/M07 A3036 RMK A01 T10671070  RH  098%=      5-min Rain = 0
KFL1 090634Z 05004KT M07/M07 A3036 RMK A01 T10651067  RH  098%=      5-min Rain = 0
KFL1 090635Z 05004KT M07/M07 A3036 RMK A01 T10651068  RH  098%=      5-min Rain = 0
KFL1 090636Z 05004KT M06/M07 A3036 RMK A01 T10641066  RH  098%=      5-min Rain = 0
KFL1 090637Z 04004KT M06/M07 A3036 RMK A01 T10641067  RH  098%=      5-min Rain = 0
KFL1 090638Z 04004KT M07/M07 A3036 RMK A01 T10661069  RH  098%=      5-min Rain = 0
KFL1 090639Z 05004KT M07/M07 A3036 RMK A01 T10661069  RH  098%=      5-min Rain = 0
KFL1 090640Z 04005KT M07/M07 A3036 RMK A01 T10651069  RH  097%=      5-min Rain = 0
KFL1 090641Z 05004KT M07/M07 A3036 RMK A01 T10671071  RH  097%=      5-min Rain = 0
KFL1 090642Z 05004KT M07/M07 A3036 RMK A01 T10661070  RH  097%=      5-min Rain = 0
KFL1 090643Z 05004KT M06/M07 A3036 RMK A01 T10641069  RH  097%=      5-min Rain = 0
KFL1 090644Z 05004KT M07/M07 A3036 RMK A01 T10661070  RH  097%=      5-min Rain = 0
KFL1 090645Z 05004KT M07/M07 A3036 RMK A01 T10661070  RH  097%=      5-min Rain = 0
KFL1 090646Z 05004KT M07/M07 A3036 RMK A01 T10651070  RH  097%=      5-min Rain = 0
KFL1 090647Z 04003KT M06/M07 A3036 RMK A01 T10631068  RH  097%=      5-min Rain = 0
KFL1 090648Z 04004KT M06/M07 A3036 RMK A01 T10621067  RH  097%=      5-min Rain = 0
KFL1 090649Z 03005KT M06/M07 A3036 RMK A01 T10621066  RH  097%=      5-min Rain = 0
KFL1 090650Z 05004KT M06/M07 A3036 RMK A01 T10621066  RH  097%=      5-min Rain = 0
KFL1 090651Z 05003KT M06/M07 A3036 RMK A01 T10621067  RH  096%=      5-min Rain = 0
KFL1 090652Z 03003KT M06/M07 A3036 RMK A01 T10611066  RH  097%=      5-min Rain = 0
KFL1 090653Z 06003KT M06/M07 A3036 RMK A01 T10601065  RH  097%=      5-min Rain = 0
KFL1 090654Z 07002KT M06/M06 A3036 RMK A01 T10591063  RH  097%=      5-min Rain = 0
KFL1 090655Z 05003KT M06/M06 A3036 RMK A01 T10561060  RH  097%=      5-min Rain = 0
KFL1 090656Z 03004KT M06/M06 A3036 RMK A01 T10581061  RH  097%=      5-min Rain = 0
KFL1 090657Z 06003KT M06/M06 A3036 RMK A01 T10571060  RH  098%=      5-min Rain = 0
KFL1 090658Z 06004KT M06/M06 A3035 RMK A01 T10571060  RH  098%=      5-min Rain = 0
KFL1 090659Z 05004KT M05/M06 A3035 RMK A01 T10541057  RH  098%=      5-min Rain = 0
KFL1 090700Z 05003KT M05/M06 A3035 RMK A01 T10531056  RH  098%=      5-min Rain = 0
KFL1 090701Z 05004KT M05/M06 A3035 RMK A01 T10531056  RH  098%=      5-min Rain = 0
KFL1 090702Z 05004KT M05/M06 A3035 RMK A01 T10541057  RH  098%=      5-min Rain = 0
KFL1 090703Z 04005KT M05/M06 A3035 RMK A01 T10531056  RH  098%=      5-min Rain = 0
KFL1 090704Z 04005KT M05/M06 A3035 RMK A01 T10541057  RH  098%=      5-min Rain = 0
KFL1 090705Z 04005KT M06/M06 A3035 RMK A01 T10551059  RH  097%=      5-min Rain = 0
KFL1 090706Z 04005KT M06/M06 A3035 RMK A01 T10551059  RH  097%=      5-min Rain = 0
KFL1 090707Z 04005KT M06/M06 A3035 RMK A01 T10551059  RH  097%=      5-min Rain = 0
KFL1 090708Z 04005KT M06/M06 A3035 RMK A01 T10551059  RH  097%=      5-min Rain = 0
KFL1 090709Z 05005KT M06/M06 A3035 RMK A01 T10551059  RH  098%=      5-min Rain = 0
KFL1 090710Z 05005KT M05/M06 A3035 RMK A01 T10541058  RH  098%=      5-min Rain = 0
KFL1 090711Z 05004KT M05/M06 A3035 RMK A01 T10541057  RH  098%=      5-min Rain = 0
KFL1 090712Z 05005KT M06/M06 A3035 RMK A01 T10551058  RH  098%=      5-min Rain = 0
KFL1 090713Z 05004KT M05/M06 A3035 RMK A01 T10531056  RH  098%=      5-min Rain = 0
KFL1 090714Z 05004KT M05/M06 A3035 RMK A01 T10531056  RH  098%=      5-min Rain = 0
KFL1 090715Z 05004KT M05/M06 A3035 RMK A01 T10541057  RH  098%=      5-min Rain = 0
KFL1 090716Z 05005KT M05/M06 A3035 RMK A01 T10531056  RH  098%=      5-min Rain = 0
KFL1 090717Z 05005KT M05/M06 A3035 RMK A01 T10541058  RH  097%=      5-min Rain = 0
KFL1 090718Z 05003KT M06/M06 A3035 RMK A01 T10551058  RH  097%=      5-min Rain = 0
KFL1 090719Z 05003KT M06/M06 A3035 RMK A01 T10551059  RH  097%=      5-min Rain = 0
KFL1 090720Z 05004KT M05/M06 A3035 RMK A01 T10531057  RH  097%=      5-min Rain = 0
KFL1 090721Z 06004KT M06/M06 A3035 RMK A01 T10551058  RH  097%=      5-min Rain = 0
KFL1 090722Z 06004KT M05/M06 A3035 RMK A01 T10541057  RH  098%=      5-min Rain = 0
KFL1 090723Z 05004KT M05/M06 A3035 RMK A01 T10541057  RH  097%=      5-min Rain = 0
KFL1 090724Z 05005KT M06/M06 A3035 RMK A01 T10551059  RH  097%=      5-min Rain = 0
KFL1 090725Z 05005KT M06/M06 A3035 RMK A01 T10571061  RH  097%=      5-min Rain = 0
KFL1 090726Z 05003KT M06/M06 A3035 RMK A01 T10571061  RH  097%=      5-min Rain = 0
KFL1 090727Z 05004KT M06/M06 A3035 RMK A01 T10581063  RH  097%=      5-min Rain = 0
KFL1 090728Z 05005KT M06/M06 A3035 RMK A01 T10591064  RH  097%=      5-min Rain = 0
KFL1 090729Z 05005KT M06/M07 A3035 RMK A01 T10601065  RH  096%=      5-min Rain = 0
KFL1 090730Z 05005KT M06/M07 A3035 RMK A01 T10611066  RH  096%=      5-min Rain = 0
KFL1 090731Z 04005KT M06/M07 A3035 RMK A01 T10621067  RH  096%=      5-min Rain = 0
KFL1 090732Z 05005KT M06/M07 A3035 RMK A01 T10641069  RH  096%=      5-min Rain = 0
KFL1 090733Z 06004KT M07/M07 A3035 RMK A01 T10651071  RH  096%=      5-min Rain = 0
KFL1 090734Z 05005KT M07/M07 A3035 RMK A01 T10651070  RH  096%=      5-min Rain = 0
KFL1 090735Z 05005KT M07/M07 A3035 RMK A01 T10651070  RH  096%=      5-min Rain = 0
KFL1 090736Z 06005KT M07/M07 A3035 RMK A01 T10661072  RH  096%=      5-min Rain = 0
KFL1 090737Z 06004KT M07/M08 A3035 RMK A01 T10691075  RH  095%=      5-min Rain = 0
KFL1 090738Z 04005KT M07/M08 A3035 RMK A01 T10701078  RH  094%=      5-min Rain = 0
KFL1 090739Z 04006KT M07/M08 A3035 RMK A01 T10731083  RH  093%=      5-min Rain = 0
KFL1 090740Z 04005KT M08/M09 A3035 RMK A01 T10751086  RH  092%=      5-min Rain = 0
KFL1 090741Z 04006KT M08/M09 A3035 RMK A01 T10771089  RH  091%=      5-min Rain = 0
KFL1 090742Z 04006KT M08/M09 A3035 RMK A01 T10791092  RH  090%=      5-min Rain = 0
KFL1 090743Z 05007KT M08/M09 A3035 RMK A01 T10811094  RH  091%=      5-min Rain = 0
KFL1 090744Z 05005KT M08/M09 A3035 RMK A01 T10811092  RH  092%=      5-min Rain = 0
KFL1 090745Z 05005KT M08/M09 A3035 RMK A01 T10811091  RH  093%=      5-min Rain = 0
KFL1 090746Z 05005KT M08/M09 A3035 RMK A01 T10811089  RH  094%=      5-min Rain = 0
KFL1 090747Z 06005KT M08/M09 A3035 RMK A01 T10791086  RH  095%=      5-min Rain = 0
KFL1 090748Z 07005KT M08/M08 A3035 RMK A01 T10761082  RH  096%=      5-min Rain = 0
KFL1 090749Z 04004KT M08/M08 A3035 RMK A01 T10761082  RH  096%=      5-min Rain = 0
KFL1 090750Z 05005KT M07/M08 A3035 RMK A01 T10741079  RH  096%=      5-min Rain = 0
KFL1 090751Z 07005KT M07/M08 A3035 RMK A01 T10721076  RH  097%=      5-min Rain = 0
KFL1 090752Z 06005KT M07/M07 A3035 RMK A01 T10701074  RH  097%=      5-min Rain = 0
KFL1 090753Z 05004KT M07/M07 A3035 RMK A01 T10681072  RH  097%=      5-min Rain = 0
KFL1 090754Z 06005KT M07/M07 A3035 RMK A01 T10671071  RH  098%=      5-min Rain = 0
KFL1 090755Z 06005KT M07/M07 A3035 RMK A01 T10671070  RH  098%=      5-min Rain = 0
KFL1 090756Z 07005KT M07/M07 A3035 RMK A01 T10661070  RH  098%=      5-min Rain = 0
KFL1 090757Z 05004KT M07/M07 A3035 RMK A01 T10651068  RH  098%=      5-min Rain = 0
KFL1 090758Z 05004KT M06/M07 A3035 RMK A01 T10641067  RH  098%=      5-min Rain = 0
KFL1 090759Z 05004KT M06/M07 A3035 RMK A01 T10621065  RH  098%=      5-min Rain = 0
KFL1 090800Z 06005KT M06/M07 A3035 RMK A01 T10621065  RH  098%=      5-min Rain = 0
KFL1 090801Z 06004KT M06/M06 A3035 RMK A01 T10611064  RH  098%=      5-min Rain = 0
KFL1 090802Z 06003KT M06/M06 A3035 RMK A01 T10611064  RH  098%=      5-min Rain = 0
KFL1 090803Z 06004KT M06/M06 A3035 RMK A01 T10611064  RH  098%=      5-min Rain = 0
KFL1 090804Z 06004KT M06/M06 A3035 RMK A01 T10611064  RH  098%=      5-min Rain = 0
KFL1 090805Z 05004KT M06/M07 A3035 RMK A01 T10611065  RH  097%=      5-min Rain = 0
KFL1 090806Z 05004KT M06/M07 A3035 RMK A01 T10611065  RH  097%=      5-min Rain = 0
KFL1 090807Z 04004KT M06/M07 A3035 RMK A01 T10611065  RH  097%=      5-min Rain = 0
KFL1 090808Z 04004KT M06/M07 A3035 RMK A01 T10611065  RH  097%=      5-min Rain = 0
KFL1 090809Z 05004KT M06/M06 A3035 RMK A01 T10611064  RH  097%=      5-min Rain = 0
KFL1 090810Z 05004KT M06/M07 A3035 RMK A01 T10611065  RH  097%=      5-min Rain = 0
KFL1 090811Z 03003KT M06/M06 A3035 RMK A01 T10601063  RH  097%=      5-min Rain = 0
KFL1 090812Z 02005KT M06/M06 A3035 RMK A01 T10601063  RH  097%=      5-min Rain = 0
KFL1 090813Z 06005KT M06/M07 A3035 RMK A01 T10621066  RH  097%=      5-min Rain = 0
KFL1 090814Z 07005KT M06/M07 A3035 RMK A01 T10611066  RH  097%=      5-min Rain = 0
KFL1 090815Z 06004KT M06/M06 A3035 RMK A01 T10591063  RH  097%=      5-min Rain = 0
KFL1 090816Z 05005KT M06/M06 A3035 RMK A01 T10601063  RH  097%=      5-min Rain = 0
KFL1 090817Z 05005KT M06/M06 A3035 RMK A01 T10601063  RH  097%=      5-min Rain = 0
KFL1 090818Z 06005KT M06/M06 A3034 RMK A01 T10591063  RH  097%=      5-min Rain = 0
KFL1 090819Z 07004KT M06/M06 A3034 RMK A01 T10601064  RH  097%=      5-min Rain = 0
KFL1 090820Z 03002KT M06/M06 A3034 RMK A01 T10601064  RH  097%=      5-min Rain = 0
KFL1 090821Z 00005KT M06/M06 A3035 RMK A01 T10591064  RH  097%=      5-min Rain = 0
KFL1 090822Z 02004KT M06/M07 A3035 RMK A01 T10631068  RH  096%=      5-min Rain = 0
KFL1 090823Z 05005KT M07/M07 A3035 RMK A01 T10671072  RH  096%=      5-min Rain = 0
KFL1 090824Z 07006KT M07/M07 A3035 RMK A01 T10661071  RH  096%=      5-min Rain = 0
KFL1 090825Z 06005KT M07/M07 A3035 RMK A01 T10651070  RH  096%=      5-min Rain = 0
KFL1 090826Z 05004KT M06/M07 A3035 RMK A01 T10641069  RH  097%=      5-min Rain = 0
KFL1 090827Z 06002KT M07/M07 A3035 RMK A01 T10651069  RH  097%=      5-min Rain = 0
KFL1 090828Z 06003KT M06/M07 A3035 RMK A01 T10641069  RH  096%=      5-min Rain = 0
KFL1 090829Z 05003KT M07/M07 A3035 RMK A01 T10651071  RH  096%=      5-min Rain = 0
KFL1 090830Z 06003KT M07/M07 A3035 RMK A01 T10671072  RH  096%=      5-min Rain = 0
KFL1 090831Z 06004KT M07/M07 A3035 RMK A01 T10671072  RH  096%=      5-min Rain = 0
KFL1 090832Z 05003KT M07/M07 A3035 RMK A01 T10671072  RH  096%=      5-min Rain = 0
KFL1 090833Z 05004KT M07/M07 A3035 RMK A01 T10681073  RH  096%=      5-min Rain = 0
KFL1 090834Z 04003KT M07/M07 A3035 RMK A01 T10681073  RH  096%=      5-min Rain = 0
KFL1 090835Z 05003KT M07/M07 A3035 RMK A01 T10671073  RH  096%=      5-min Rain = 0
KFL1 090836Z 04004KT M07/M07 A3035 RMK A01 T10681073  RH  096%=      5-min Rain = 0
KFL1 090837Z 03003KT M07/M07 A3035 RMK A01 T10671072  RH  096%=      5-min Rain = 0
KFL1 090838Z 04003KT M07/M07 A3035 RMK A01 T10661071  RH  096%=      5-min Rain = 0
KFL1 090839Z 06003KT M06/M07 A3035 RMK A01 T10641068  RH  097%=      5-min Rain = 0
KFL1 090840Z 04003KT M06/M07 A3035 RMK A01 T10641069  RH  097%=      5-min Rain = 0
KFL1 090841Z 03004KT M06/M07 A3035 RMK A01 T10641068  RH  097%=      5-min Rain = 0
KFL1 090842Z 03004KT M06/M07 A3035 RMK A01 T10631068  RH  097%=      5-min Rain = 0
KFL1 090843Z 03003KT M06/M07 A3035 RMK A01 T10641069  RH  097%=      5-min Rain = 0
KFL1 090844Z 04003KT M06/M07 A3035 RMK A01 T10641069  RH  097%=      5-min Rain = 0
KFL1 090845Z 04004KT M06/M07 A3035 RMK A01 T10641068  RH  097%=      5-min Rain = 0
KFL1 090846Z 05004KT M06/M07 A3035 RMK A01 T10621067  RH  097%=      5-min Rain = 0
KFL1 090847Z 05003KT M06/M07 A3035 RMK A01 T10631068  RH  097%=      5-min Rain = 0
KFL1 090848Z 04004KT M06/M07 A3035 RMK A01 T10621067  RH  097%=      5-min Rain = 0
KFL1 090849Z 02004KT M06/M07 A3035 RMK A01 T10611066  RH  097%=      5-min Rain = 0
KFL1 090850Z 01004KT M06/M07 A3035 RMK A01 T10641069  RH  096%=      5-min Rain = 0
KFL1 090851Z 03004KT M07/M08 A3035 RMK A01 T10681075  RH  095%=      5-min Rain = 0
KFL1 090852Z 05004KT M07/M08 A3035 RMK A01 T10721080  RH  094%=      5-min Rain = 0
KFL1 090853Z 05004KT M07/M08 A3035 RMK A01 T10701077  RH  095%=      5-min Rain = 0
KFL1 090854Z 06004KT M07/M07 A3035 RMK A01 T10681074  RH  096%=      5-min Rain = 0
KFL1 090855Z 06003KT M07/M07 A3035 RMK A01 T10651070  RH  097%=      5-min Rain = 0
KFL1 090856Z 05003KT M06/M07 A3035 RMK A01 T10631067  RH  097%=      5-min Rain = 0
KFL1 090857Z 04004KT M06/M07 A3035 RMK A01 T10631067  RH  097%=      5-min Rain = 0
KFL1 090858Z 04004KT M06/M07 A3035 RMK A01 T10621066  RH  097%=      5-min Rain = 0
KFL1 090859Z 04004KT M06/M07 A3035 RMK A01 T10611065  RH  097%=      5-min Rain = 0
KFL1 090900Z 05004KT M06/M07 A3035 RMK A01 T10621066  RH  097%=      5-min Rain = 0
KFL1 090901Z 05005KT M06/M07 A3035 RMK A01 T10611066  RH  097%=      5-min Rain = 0
KFL1 090902Z 05004KT M06/M06 A3035 RMK A01 T10591063  RH  097%=      5-min Rain = 0
KFL1 090903Z 06004KT M06/M06 A3035 RMK A01 T10601064  RH  097%=      5-min Rain = 0
KFL1 090904Z 05004KT M06/M06 A3035 RMK A01 T10601064  RH  097%=      5-min Rain = 0
KFL1 090905Z 04004KT M06/M06 A3035 RMK A01 T10581062  RH  097%=      5-min Rain = 0
KFL1 090906Z 05005KT M06/M06 A3035 RMK A01 T10581062  RH  097%=      5-min Rain = 0
KFL1 090907Z 06004KT M06/M06 A3035 RMK A01 T10591063  RH  097%=      5-min Rain = 0
KFL1 090908Z 05004KT M06/M07 A3035 RMK A01 T10611065  RH  097%=      5-min Rain = 0
KFL1 090909Z 05003KT M06/M06 A3035 RMK A01 T10591064  RH  097%=      5-min Rain = 0
KFL1 090910Z 06004KT M06/M07 A3035 RMK A01 T10601065  RH  097%=      5-min Rain = 0
KFL1 090911Z 06003KT M06/M07 A3035 RMK A01 T10601065  RH  096%=      5-min Rain = 0
KFL1 090912Z 05003KT M06/M06 A3035 RMK A01 T10601064  RH  096%=      5-min Rain = 0
KFL1 090913Z 05003KT M06/M07 A3035 RMK A01 T10601065  RH  096%=      5-min Rain = 0
KFL1 090914Z 05003KT M06/M07 A3035 RMK A01 T10611066  RH  096%=      5-min Rain = 0
KFL1 090915Z 05003KT M06/M07 A3035 RMK A01 T10621067  RH  096%=      5-min Rain = 0
KFL1 090916Z 05003KT M06/M07 A3035 RMK A01 T10611066  RH  096%=      5-min Rain = 0
KFL1 090917Z 05003KT M06/M07 A3035 RMK A01 T10601065  RH  096%=      5-min Rain = 0
KFL1 090918Z 06003KT M06/M07 A3035 RMK A01 T10611067  RH  096%=      5-min Rain = 0
KFL1 090919Z 04004KT M06/M07 A3035 RMK A01 T10621068  RH  096%=      5-min Rain = 0
KFL1 090920Z 03004KT M06/M07 A3035 RMK A01 T10621068  RH  096%=      5-min Rain = 0
KFL1 090921Z 02004KT M06/M07 A3035 RMK A01 T10621068  RH  096%=      5-min Rain = 0
KFL1 090922Z 03004KT M07/M08 A3035 RMK A01 T10681075  RH  095%=      5-min Rain = 0
KFL1 090923Z 05004KT M07/M08 A3035 RMK A01 T10721081  RH  094%=      5-min Rain = 0
KFL1 090924Z 06005KT M07/M08 A3035 RMK A01 T10741082  RH  094%=      5-min Rain = 0
KFL1 090925Z 05004KT M07/M08 A3035 RMK A01 T10721080  RH  094%=      5-min Rain = 0
KFL1 090926Z 03004KT M07/M08 A3035 RMK A01 T10721079  RH  095%=      5-min Rain = 0
KFL1 090927Z 04005KT M07/M08 A3035 RMK A01 T10741081  RH  095%=      5-min Rain = 0
KFL1 090928Z 06004KT M08/M08 A3035 RMK A01 T10761084  RH  094%=      5-min Rain = 0
KFL1 090929Z 04003KT M08/M09 A3035 RMK A01 T10781086  RH  094%=      5-min Rain = 0
KFL1 090930Z 02004KT M08/M09 A3035 RMK A01 T10781085  RH  094%=      5-min Rain = 0
KFL1 090931Z 01006KT M09/M10 A3035 RMK A01 T10851095  RH  092%=      5-min Rain = 0
KFL1 090932Z 03005KT M09/M10 A3035 RMK A01 T10881098  RH  092%=      5-min Rain = 0
KFL1 090933Z 04006KT M09/M10 A3035 RMK A01 T10871096  RH  093%=      5-min Rain = 0
KFL1 090934Z 06005KT M08/M09 A3035 RMK A01 T10821089  RH  095%=      5-min Rain = 0
KFL1 090935Z 06004KT M08/M09 A3035 RMK A01 T10791085  RH  096%=      5-min Rain = 0
KFL1 090936Z 03003KT M08/M08 A3035 RMK A01 T10771082  RH  096%=      5-min Rain = 0
KFL1 090937Z 01004KT M08/M08 A3035 RMK A01 T10761081  RH  096%=      5-min Rain = 0
KFL1 090938Z 01004KT M08/M09 A3035 RMK A01 T10821090  RH  094%=      5-min Rain = 0
KFL1 090939Z 03005KT M09/M09 A3035 RMK A01 T10851094  RH  093%=      5-min Rain = 0
KFL1 090940Z 05005KT M09/M09 A3035 RMK A01 T10851094  RH  093%=      5-min Rain = 0
KFL1 090941Z 06005KT M08/M09 A3035 RMK A01 T10831091  RH  094%=      5-min Rain = 0
KFL1 090942Z 07005KT M08/M09 A3035 RMK A01 T10821089  RH  095%=      5-min Rain = 0
KFL1 090943Z 06005KT M08/M09 A3035 RMK A01 T10811087  RH  095%=      5-min Rain = 0
KFL1 090944Z 06005KT M08/M09 A3035 RMK A01 T10791085  RH  095%=      5-min Rain = 0
KFL1 090945Z 06004KT M08/M09 A3035 RMK A01 T10791085  RH  095%=      5-min Rain = 0
KFL1 090946Z 06004KT M08/M09 A3035 RMK A01 T10781085  RH  095%=      5-min Rain = 0
KFL1 090947Z 05005KT M08/M08 A3035 RMK A01 T10771084  RH  095%=      5-min Rain = 0
KFL1 090948Z 05005KT M08/M09 A3035 RMK A01 T10781085  RH  095%=      5-min Rain = 0
KFL1 090949Z 05005KT M08/M08 A3035 RMK A01 T10771084  RH  095%=      5-min Rain = 0
KFL1 090950Z 05005KT M08/M08 A3035 RMK A01 T10761082  RH  095%=      5-min Rain = 0
KFL1 090951Z 05006KT M08/M08 A3035 RMK A01 T10771084  RH  095%=      5-min Rain = 0
KFL1 090952Z 06006KT M08/M08 A3035 RMK A01 T10761082  RH  095%=      5-min Rain = 0
KFL1 090953Z 05005KT M07/M08 A3035 RMK A01 T10741080  RH  095%=      5-min Rain = 0
KFL1 090954Z 04003KT M07/M08 A3035 RMK A01 T10731079  RH  095%=      5-min Rain = 0
KFL1 090955Z 04003KT M08/M08 A3035 RMK A01 T10751082  RH  095%=      5-min Rain = 0
KFL1 090956Z 04004KT M08/M08 A3035 RMK A01 T10761083  RH  095%=      5-min Rain = 0
KFL1 090957Z 04005KT M08/M08 A3035 RMK A01 T10771084  RH  094%=      5-min Rain = 0
KFL1 090958Z 04004KT M08/M08 A3035 RMK A01 T10761084  RH  094%=      5-min Rain = 0
KFL1 090959Z 05005KT M08/M08 A3035 RMK A01 T10761083  RH  095%=      5-min Rain = 0
KFL1 091000Z 05004KT M07/M08 A3035 RMK A01 T10741080  RH  095%=      5-min Rain = 0
KFL1 091001Z 05004KT M07/M08 A3035 RMK A01 T10741080  RH  095%=      5-min Rain = 0
KFL1 091002Z 04005KT M07/M08 A3035 RMK A01 T10741081  RH  095%=      5-min Rain = 0
KFL1 091003Z 04005KT M07/M08 A3035 RMK A01 T10741080  RH  095%=      5-min Rain = 0
KFL1 091004Z 05005KT M07/M08 A3035 RMK A01 T10731080  RH  095%=      5-min Rain = 0
KFL1 091005Z 04005KT M07/M08 A3035 RMK A01 T10731080  RH  095%=      5-min Rain = 0
KFL1 091006Z 05005KT M07/M08 A3035 RMK A01 T10701077  RH  096%=      5-min Rain = 0
KFL1 091007Z 05004KT M07/M08 A3035 RMK A01 T10711077  RH  095%=      5-min Rain = 0
KFL1 091008Z 05004KT M07/M08 A3035 RMK A01 T10721079  RH  095%=      5-min Rain = 0
KFL1 091009Z 06004KT M07/M08 A3035 RMK A01 T10721080  RH  095%=      5-min Rain = 0
KFL1 091010Z 05004KT M07/M08 A3035 RMK A01 T10721080  RH  094%=      5-min Rain = 0
KFL1 091011Z 05004KT M07/M08 A3035 RMK A01 T10741082  RH  094%=      5-min Rain = 0
KFL1 091012Z 05004KT M07/M08 A3035 RMK A01 T10741083  RH  094%=      5-min Rain = 0
KFL1 091013Z 04004KT M08/M08 A3035 RMK A01 T10751083  RH  094%=      5-min Rain = 0
KFL1 091014Z 04004KT M08/M08 A3035 RMK A01 T10751084  RH  094%=      5-min Rain = 0
KFL1 091015Z 04004KT M08/M09 A3035 RMK A01 T10761085  RH  094%=      5-min Rain = 0
KFL1 091016Z 04005KT M08/M08 A3035 RMK A01 T10751083  RH  094%=      5-min Rain = 0
KFL1 091017Z 04005KT M07/M08 A3035 RMK A01 T10731080  RH  095%=      5-min Rain = 0
KFL1 091018Z 04005KT M07/M08 A3035 RMK A01 T10721079  RH  095%=      5-min Rain = 0
KFL1 091019Z 03005KT M07/M08 A3035 RMK A01 T10721078  RH  095%=      5-min Rain = 0
KFL1 091020Z 03006KT M07/M08 A3035 RMK A01 T10731080  RH  095%=      5-min Rain = 0
KFL1 091021Z 03005KT M07/M08 A3035 RMK A01 T10721079  RH  094%=      5-min Rain = 0
KFL1 091022Z 03006KT M08/M09 A3035 RMK A01 T10781089  RH  092%=      5-min Rain = 0
KFL1 091023Z 04006KT M09/M10 A3035 RMK A01 T10851097  RH  090%=      5-min Rain = 0
KFL1 091024Z 04006KT M09/M10 A3035 RMK A01 T10851096  RH  092%=      5-min Rain = 0
KFL1 091025Z 03005KT M08/M09 A3035 RMK A01 T10821091  RH  093%=      5-min Rain = 0
KFL1 091026Z 03006KT M08/M09 A3035 RMK A01 T10841094  RH  093%=      5-min Rain = 0
KFL1 091027Z 03006KT M09/M10 A3035 RMK A01 T10881100  RH  091%=      5-min Rain = 0
KFL1 091028Z 03006KT M09/M10 A3035 RMK A01 T10891100  RH  092%=      5-min Rain = 0
KFL1 091029Z 04005KT M09/M10 A3035 RMK A01 T10861095  RH  093%=      5-min Rain = 0
KFL1 091030Z 04005KT M09/M09 A3035 RMK A01 T10851094  RH  093%=      5-min Rain = 0
KFL1 091031Z 04006KT M08/M09 A3035 RMK A01 T10831090  RH  094%=      5-min Rain = 0
KFL1 091032Z 04005KT M08/M09 A3035 RMK A01 T10791085  RH  095%=      5-min Rain = 0
KFL1 091033Z 04005KT M07/M08 A3035 RMK A01 T10741079  RH  096%=      5-min Rain = 0
KFL1 091034Z 03005KT M07/M08 A3035 RMK A01 T10711076  RH  096%=      5-min Rain = 0
KFL1 091035Z 04004KT M07/M08 A3035 RMK A01 T10701075  RH  096%=      5-min Rain = 0
KFL1 091036Z 05004KT M07/M07 A3035 RMK A01 T10691074  RH  096%=      5-min Rain = 0
KFL1 091037Z 04005KT M07/M08 A3035 RMK A01 T10701075  RH  096%=      5-min Rain = 0
KFL1 091038Z 05005KT M07/M08 A3035 RMK A01 T10691076  RH  095%=      5-min Rain = 0
KFL1 091039Z 04005KT M07/M08 A3035 RMK A01 T10701077  RH  095%=      5-min Rain = 0
KFL1 091040Z 04005KT M07/M08 A3035 RMK A01 T10691075  RH  095%=      5-min Rain = 0
KFL1 091041Z 04005KT M07/M07 A3035 RMK A01 T10671074  RH  095%=      5-min Rain = 0
KFL1 091042Z 03006KT M07/M08 A3035 RMK A01 T10681075  RH  095%=      5-min Rain = 0
KFL1 091043Z 03006KT M07/M07 A3035 RMK A01 T10671074  RH  095%=      5-min Rain = 0
KFL1 091044Z 03005KT M07/M08 A3035 RMK A01 T10741084  RH  092%=      5-min Rain = 0
KFL1 091045Z 03005KT M08/M09 A3035 RMK A01 T10801092  RH  091%=      5-min Rain = 0
KFL1 091046Z 03005KT M08/M09 A3035 RMK A01 T10781087  RH  093%=      5-min Rain = 0
KFL1 091047Z 05006KT M08/M08 A3035 RMK A01 T10751083  RH  094%=      5-min Rain = 0
KFL1 091048Z 04005KT M07/M08 A3035 RMK A01 T10741081  RH  095%=      5-min Rain = 0
KFL1 091049Z 03004KT M07/M08 A3035 RMK A01 T10701076  RH  096%=      5-min Rain = 0
KFL1 091050Z 04005KT M07/M08 A3035 RMK A01 T10701076  RH  095%=      5-min Rain = 0
KFL1 091051Z 04006KT M07/M08 A3035 RMK A01 T10731081  RH  095%=      5-min Rain = 0
KFL1 091052Z 04005KT M07/M08 A3035 RMK A01 T10701077  RH  095%=      5-min Rain = 0
KFL1 091053Z 05005KT M07/M07 A3035 RMK A01 T10681074  RH  096%=      5-min Rain = 0
KFL1 091054Z 05004KT M07/M07 A3035 RMK A01 T10681074  RH  095%=      5-min Rain = 0
KFL1 091055Z 04005KT M07/M08 A3035 RMK A01 T10691076  RH  095%=      5-min Rain = 0
KFL1 091056Z 05005KT M07/M07 A3035 RMK A01 T10671074  RH  095%=      5-min Rain = 0
KFL1 091057Z 04005KT M07/M07 A3035 RMK A01 T10681074  RH  095%=      5-min Rain = 0
KFL1 091058Z 04005KT M07/M08 A3035 RMK A01 T10681075  RH  095%=      5-min Rain = 0
KFL1 091059Z 05004KT M07/M07 A3035 RMK A01 T10651071  RH  095%=      5-min Rain = 0
KFL1 091100Z 04004KT M07/M07 A3035 RMK A01 T10651072  RH  095%=      5-min Rain = 0
KFL1 091101Z 04004KT M07/M07 A3035 RMK A01 T10661072  RH  095%=      5-min Rain = 0
KFL1 091102Z 05004KT M07/M07 A3035 RMK A01 T10661073  RH  095%=      5-min Rain = 0
KFL1 091103Z 05004KT M07/M07 A3035 RMK A01 T10651072  RH  095%=      5-min Rain = 0
KFL1 091104Z 04004KT M07/M08 A3035 RMK A01 T10671075  RH  094%=      5-min Rain = 0
KFL1 091105Z 05004KT M07/M08 A3035 RMK A01 T10681076  RH  094%=      5-min Rain = 0
KFL1 091106Z 04005KT M07/M08 A3035 RMK A01 T10681075  RH  094%=      5-min Rain = 0
KFL1 091107Z 04004KT M07/M08 A3035 RMK A01 T10681075  RH  095%=      5-min Rain = 0
KFL1 091108Z 05004KT M07/M08 A3035 RMK A01 T10681075  RH  094%=      5-min Rain = 0
KFL1 091109Z 04004KT M07/M08 A3035 RMK A01 T10701077  RH  094%=      5-min Rain = 0
KFL1 091110Z 04003KT M07/M08 A3035 RMK A01 T10691076  RH  094%=      5-min Rain = 0
KFL1 091111Z 03004KT M07/M08 A3035 RMK A01 T10681075  RH  095%=      5-min Rain = 0
KFL1 091112Z 03004KT M07/M08 A3035 RMK A01 T10691077  RH  094%=      5-min Rain = 0
KFL1 091113Z 05006KT M07/M08 A3035 RMK A01 T10711079  RH  094%=      5-min Rain = 0
KFL1 091114Z 07005KT M07/M08 A3035 RMK A01 T10711079  RH  094%=      5-min Rain = 0
KFL1 091115Z 07004KT M07/M08 A3035 RMK A01 T10731083  RH  093%=      5-min Rain = 0
KFL1 091116Z 35002KT M08/M09 A3035 RMK A01 T10761086  RH  093%=      5-min Rain = 0
KFL1 091117Z 35004KT M08/M09 A3035 RMK A01 T10801090  RH  092%=      5-min Rain = 0
KFL1 091118Z 36004KT M09/M10 A3035 RMK A01 T10851098  RH  090%=      5-min Rain = 0
KFL1 091119Z 02004KT M09/M10 A3035 RMK A01 T10871100  RH  090%=      5-min Rain = 0
KFL1 091120Z 04004KT M09/M10 A3035 RMK A01 T10871098  RH  092%=      5-min Rain = 0
KFL1 091121Z 07004KT M08/M09 A3035 RMK A01 T10841094  RH  093%=      5-min Rain = 0
KFL1 091122Z 07004KT M08/M09 A3035 RMK A01 T10841094  RH  093%=      5-min Rain = 0
KFL1 091123Z 06004KT M09/M10 A3035 RMK A01 T10871098  RH  092%=      5-min Rain = 0
KFL1 091124Z 05005KT M09/M10 A3035 RMK A01 T10891101  RH  091%=      5-min Rain = 0
KFL1 091125Z 03006KT M09/M11 A3035 RMK A01 T10931106  RH  091%=      5-min Rain = 0
KFL1 091126Z 04006KT M09/M11 A3035 RMK A01 T10931105  RH  091%=      5-min Rain = 0
KFL1 091127Z 06005KT M09/M10 A3035 RMK A01 T10901100  RH  093%=      5-min Rain = 0
KFL1 091128Z 05004KT M09/M10 A3035 RMK A01 T10881096  RH  094%=      5-min Rain = 0
KFL1 091129Z 05005KT M09/M10 A3035 RMK A01 T10871096  RH  094%=      5-min Rain = 0
KFL1 091130Z 04005KT M09/M10 A3035 RMK A01 T10891098  RH  093%=      5-min Rain = 0
KFL1 091131Z 05006KT M09/M10 A3035 RMK A01 T10881097  RH  093%=      5-min Rain = 0
KFL1 091132Z 05006KT M09/M09 A3035 RMK A01 T10861094  RH  094%=      5-min Rain = 0
KFL1 091133Z 05006KT M08/M09 A3035 RMK A01 T10841091  RH  095%=      5-min Rain = 0
KFL1 091134Z 05006KT M08/M09 A3035 RMK A01 T10801086  RH  095%=      5-min Rain = 0
KFL1 091135Z 04005KT M08/M09 A3035 RMK A01 T10791085  RH  095%=      5-min Rain = 0
KFL1 091136Z 04006KT M08/M09 A3035 RMK A01 T10801086  RH  095%=      5-min Rain = 0
KFL1 091137Z 04006KT M08/M09 A3035 RMK A01 T10781085  RH  095%=      5-min Rain = 0
KFL1 091138Z 04006KT M08/M09 A3035 RMK A01 T10781085  RH  095%=      5-min Rain = 0
KFL1 091139Z 04006KT M08/M08 A3035 RMK A01 T10751082  RH  095%=      5-min Rain = 0
KFL1 091140Z 04006KT M08/M08 A3035 RMK A01 T10751082  RH  095%=      5-min Rain = 0
KFL1 091141Z 05005KT M08/M08 A3035 RMK A01 T10761083  RH  095%=      5-min Rain = 0
KFL1 091142Z 04004KT M08/M08 A3035 RMK A01 T10751082  RH  095%=      5-min Rain = 0
KFL1 091143Z 04005KT M08/M08 A3035 RMK A01 T10761084  RH  094%=      5-min Rain = 0
KFL1 091144Z 04005KT M08/M09 A3035 RMK A01 T10781086  RH  094%=      5-min Rain = 0
KFL1 091145Z 04005KT M08/M09 A3035 RMK A01 T10771086  RH  094%=      5-min Rain = 0
KFL1 091146Z 04005KT M08/M08 A3035 RMK A01 T10761084  RH  094%=      5-min Rain = 0
KFL1 091147Z 05005KT M08/M08 A3035 RMK A01 T10771084  RH  094%=      5-min Rain = 0
KFL1 091148Z 05005KT M08/M09 A3035 RMK A01 T10771085  RH  094%=      5-min Rain = 0
KFL1 091149Z 04005KT M08/M08 A3035 RMK A01 T10761084  RH  094%=      5-min Rain = 0
KFL1 091150Z 04005KT M08/M09 A3035 RMK A01 T10771086  RH  094%=      5-min Rain = 0
KFL1 091151Z 04005KT M08/M09 A3035 RMK A01 T10791087  RH  093%=      5-min Rain = 0
KFL1 091152Z 04005KT M08/M09 A3035 RMK A01 T10771085  RH  094%=      5-min Rain = 0
KFL1 091153Z 05005KT M08/M08 A3035 RMK A01 T10761084  RH  094%=      5-min Rain = 0
KFL1 091154Z 04004KT M08/M08 A3035 RMK A01 T10751082  RH  095%=      5-min Rain = 0
KFL1 091155Z 05005KT M08/M08 A3035 RMK A01 T10761083  RH  094%=      5-min Rain = 0
KFL1 091156Z 06005KT M08/M08 A3035 RMK A01 T10751083  RH  094%=      5-min Rain = 0
KFL1 091157Z 05005KT M08/M08 A3035 RMK A01 T10751083  RH  094%=      5-min Rain = 0
KFL1 091158Z 05005KT M08/M08 A3035 RMK A01 T10751083  RH  094%=      5-min Rain = 0
KFL1 091159Z 05005KT M08/M09 A3035 RMK A01 T10771085  RH  094%=      5-min Rain = 0
KFL1 091200Z 05005KT M08/M09 A3035 RMK A01 T10781086  RH  094%=      5-min Rain = 0
KFL1 091201Z 05005KT M08/M09 A3035 RMK A01 T10771086  RH  094%=      5-min Rain = 0
KFL1 091202Z 05005KT M08/M09 A3035 RMK A01 T10771086  RH  094%=      5-min Rain = 0
KFL1 091203Z 05005KT M08/M09 A3035 RMK A01 T10791087  RH  094%=      5-min Rain = 0
KFL1 091204Z 05006KT M08/M09 A3035 RMK A01 T10771086  RH  094%=      5-min Rain = 0
KFL1 091205Z 05005KT M08/M09 A3035 RMK A01 T10771085  RH  094%=      5-min Rain = 0
KFL1 091206Z 06005KT M08/M09 A3035 RMK A01 T10781087  RH  094%=      5-min Rain = 0
KFL1 091207Z 05005KT M08/M09 A3035 RMK A01 T10791087  RH  094%=      5-min Rain = 0
KFL1 091208Z 05006KT M08/M09 A3035 RMK A01 T10771085  RH  094%=      5-min Rain = 0
KFL1 091209Z 05006KT M08/M09 A3035 RMK A01 T10781086  RH  094%=      5-min Rain = 0
KFL1 091210Z 05006KT M08/M09 A3035 RMK A01 T10791088  RH  093%=      5-min Rain = 0
KFL1 091211Z 05006KT M08/M09 A3035 RMK A01 T10791087  RH  094%=      5-min Rain = 0
KFL1 091212Z 04005KT M08/M09 A3035 RMK A01 T10781087  RH  094%=      5-min Rain = 0
KFL1 091213Z 06006KT M08/M09 A3035 RMK A01 T10771085  RH  094%=      5-min Rain = 0
KFL1 091214Z 05006KT M08/M08 A3035 RMK A01 T10771084  RH  094%=      5-min Rain = 0
KFL1 091215Z 05005KT M08/M08 A3035 RMK A01 T10761084  RH  094%=      5-min Rain = 0
KFL1 091216Z 05005KT M08/M08 A3035 RMK A01 T10751082  RH  094%=      5-min Rain = 0
KFL1 091217Z 05005KT M08/M08 A3035 RMK A01 T10751083  RH  094%=      5-min Rain = 0
KFL1 091218Z 04005KT M08/M08 A3035 RMK A01 T10751083  RH  094%=      5-min Rain = 0
KFL1 091219Z 05006KT M07/M08 A3035 RMK A01 T10741082  RH  094%=      5-min Rain = 0
KFL1 091220Z 05006KT M08/M08 A3035 RMK A01 T10761084  RH  094%=      5-min Rain = 0
KFL1 091221Z 05005KT M08/M08 A3035 RMK A01 T10761084  RH  094%=      5-min Rain = 0
KFL1 091222Z 05005KT M08/M08 A3035 RMK A01 T10751084  RH  094%=      5-min Rain = 0
KFL1 091223Z 05006KT M08/M08 A3035 RMK A01 T10751084  RH  094%=      5-min Rain = 0
KFL1 091224Z 05006KT M08/M09 A3035 RMK A01 T10771086  RH  094%=      5-min Rain = 0
KFL1 091225Z 05005KT M08/M09 A3035 RMK A01 T10761085  RH  094%=      5-min Rain = 0
KFL1 091226Z 05005KT M08/M08 A3035 RMK A01 T10751083  RH  094%=      5-min Rain = 0
KFL1 091227Z 05005KT M08/M08 A3035 RMK A01 T10751083  RH  094%=      5-min Rain = 0
KFL1 091228Z 05006KT M08/M09 A3035 RMK A01 T10761085  RH  094%=      5-min Rain = 0
KFL1 091229Z 05006KT M08/M08 A3035 RMK A01 T10751083  RH  094%=      5-min Rain = 0
KFL1 091230Z 05006KT M08/M08 A3035 RMK A01 T10751084  RH  094%=      5-min Rain = 0
KFL1 091231Z 05005KT M08/M08 A3035 RMK A01 T10761084  RH  094%=      5-min Rain = 0
KFL1 091232Z 05006KT M08/M09 A3035 RMK A01 T10761085  RH  094%=      5-min Rain = 0
KFL1 091233Z 05006KT M08/M09 A3035 RMK A01 T10761085  RH  094%=      5-min Rain = 0
KFL1 091234Z 05006KT M08/M09 A3035 RMK A01 T10761085  RH  093%=      5-min Rain = 0
KFL1 091235Z 05006KT M08/M09 A3035 RMK A01 T10771086  RH  093%=      5-min Rain = 0
KFL1 091236Z 05006KT M08/M09 A3035 RMK A01 T10771086  RH  094%=      5-min Rain = 0
KFL1 091237Z 04006KT M08/M08 A3035 RMK A01 T10761084  RH  094%=      5-min Rain = 0
KFL1 091238Z 05007KT M08/M08 A3035 RMK A01 T10761084  RH  094%=      5-min Rain = 0
KFL1 091239Z 05006KT M08/M08 A3035 RMK A01 T10761084  RH  094%=      5-min Rain = 0
KFL1 091240Z 04006KT M07/M08 A3035 RMK A01 T10741081  RH  095%=      5-min Rain = 0
KFL1 091241Z 05006KT M07/M08 A3035 RMK A01 T10731080  RH  095%=      5-min Rain = 0
KFL1 091242Z 05006KT M08/M08 A3036 RMK A01 T10751082  RH  094%=      5-min Rain = 0
KFL1 091243Z 05006KT M08/M08 A3036 RMK A01 T10751083  RH  094%=      5-min Rain = 0
KFL1 091244Z 05006KT M08/M08 A3036 RMK A01 T10751083  RH  094%=      5-min Rain = 0
KFL1 091245Z 05006KT M08/M08 A3036 RMK A01 T10751083  RH  094%=      5-min Rain = 0
KFL1 091246Z 05006KT M08/M08 A3036 RMK A01 T10761084  RH  094%=      5-min Rain = 0
KFL1 091247Z 04006KT M08/M09 A3036 RMK A01 T10771085  RH  094%=      5-min Rain = 0
KFL1 091248Z 06006KT M08/M08 A3036 RMK A01 T10761084  RH  094%=      5-min Rain = 0
KFL1 091249Z 05006KT M08/M08 A3036 RMK A01 T10761083  RH  094%=      5-min Rain = 0
KFL1 091250Z 05007KT M08/M08 A3036 RMK A01 T10751083  RH  094%=      5-min Rain = 0
KFL1 091251Z 05006KT M08/M08 A3036 RMK A01 T10761084  RH  094%=      5-min Rain = 0
KFL1 091252Z 05006KT M08/M09 A3036 RMK A01 T10771085  RH  094%=      5-min Rain = 0
KFL1 091253Z 05006KT M08/M08 A3036 RMK A01 T10751083  RH  094%=      5-min Rain = 0
KFL1 091254Z 05006KT M08/M09 A3036 RMK A01 T10771085  RH  094%=      5-min Rain = 0
KFL1 091255Z 04006KT M08/M08 A3036 RMK A01 T10761084  RH  094%=      5-min Rain = 0
KFL1 091256Z 05006KT M08/M08 A3036 RMK A01 T10761083  RH  094%=      5-min Rain = 0
KFL1 091257Z 05006KT M08/M08 A3036 RMK A01 T10751083  RH  094%=      5-min Rain = 0
KFL1 091258Z 05005KT M08/M08 A3036 RMK A01 T10761084  RH  094%=      5-min Rain = 0
KFL1 091259Z 05005KT M08/M08 A3036 RMK A01 T10761084  RH  094%=      5-min Rain = 0
KFL1 091300Z 05006KT M08/M08 A3036 RMK A01 T10761084  RH  094%=      5-min Rain = 0
KFL1 091301Z 04006KT M08/M08 A3036 RMK A01 T10761084  RH  094%=      5-min Rain = 0
KFL1 091302Z 04005KT M08/M08 A3036 RMK A01 T10761084  RH  094%=      5-min Rain = 0
KFL1 091303Z 05006KT M08/M08 A3036 RMK A01 T10761084  RH  094%=      5-min Rain = 0
KFL1 091304Z 05006KT M08/M08 A3036 RMK A01 T10761083  RH  094%=      5-min Rain = 0
KFL1 091305Z 05006KT M08/M08 A3036 RMK A01 T10761083  RH  094%=      5-min Rain = 0
KFL1 091306Z 05005KT M08/M08 A3036 RMK A01 T10771084  RH  094%=      5-min Rain = 0
KFL1 091307Z 04005KT M08/M08 A3036 RMK A01 T10761084  RH  094%=      5-min Rain = 0
KFL1 091308Z 05006KT M08/M08 A3036 RMK A01 T10761084  RH  094%=      5-min Rain = 0
KFL1 091309Z 05005KT M08/M08 A3036 RMK A01 T10751083  RH  095%=      5-min Rain = 0
KFL1 091310Z 05005KT M07/M08 A3036 RMK A01 T10741082  RH  095%=      5-min Rain = 0
KFL1 091311Z 04005KT M08/M08 A3036 RMK A01 T10751082  RH  095%=      5-min Rain = 0
KFL1 091312Z 05006KT M07/M08 A3036 RMK A01 T10741081  RH  095%=      5-min Rain = 0
KFL1 091313Z 05005KT M07/M08 A3036 RMK A01 T10741082  RH  094%=      5-min Rain = 0
KFL1 091314Z 04006KT M08/M08 A3036 RMK A01 T10751083  RH  094%=      5-min Rain = 0
KFL1 091315Z 04006KT M07/M08 A3036 RMK A01 T10741082  RH  094%=      5-min Rain = 0
KFL1 091316Z 05006KT M07/M08 A3036 RMK A01 T10741082  RH  094%=      5-min Rain = 0
KFL1 091317Z 05006KT M07/M08 A3036 RMK A01 T10741082  RH  094%=      5-min Rain = 0
KFL1 091318Z 04006KT M08/M08 A3036 RMK A01 T10761083  RH  094%=      5-min Rain = 0
KFL1 091319Z 05006KT M07/M08 A3036 RMK A01 T10731081  RH  095%=      5-min Rain = 0
KFL1 091320Z 04006KT M07/M08 A3036 RMK A01 T10741082  RH  094%=      5-min Rain = 0
KFL1 091321Z 05006KT M08/M08 A3036 RMK A01 T10751083  RH  094%=      5-min Rain = 0
KFL1 091322Z 04005KT M07/M08 A3036 RMK A01 T10741082  RH  094%=      5-min Rain = 0
KFL1 091323Z 05005KT M07/M08 A3036 RMK A01 T10741082  RH  094%=      5-min Rain = 0
KFL1 091324Z 06006KT M08/M08 A3036 RMK A01 T10751083  RH  094%=      5-min Rain = 0
KFL1 091325Z 06005KT M08/M08 A3036 RMK A01 T10751083  RH  094%=      5-min Rain = 0
KFL1 091326Z 04005KT M08/M08 A3037 RMK A01 T10751083  RH  094%=      5-min Rain = 0
KFL1 091327Z 04005KT M07/M08 A3037 RMK A01 T10741082  RH  094%=      5-min Rain = 0
KFL1 091328Z 04006KT M08/M09 A3037 RMK A01 T10761085  RH  094%=      5-min Rain = 0
KFL1 091329Z 04005KT M08/M08 A3037 RMK A01 T10761084  RH  094%=      5-min Rain = 0
KFL1 091330Z 05006KT M08/M08 A3037 RMK A01 T10751084  RH  094%=      5-min Rain = 0
KFL1 091331Z 04006KT M08/M09 A3037 RMK A01 T10761085  RH  094%=      5-min Rain = 0
KFL1 091332Z 04006KT M08/M09 A3037 RMK A01 T10771086  RH  094%=      5-min Rain = 0
KFL1 091333Z 04006KT M08/M09 A3037 RMK A01 T10771086  RH  094%=      5-min Rain = 0
KFL1 091334Z 04006KT M08/M09 A3037 RMK A01 T10771085  RH  094%=      5-min Rain = 0
KFL1 091335Z 04006KT M08/M08 A3037 RMK A01 T10761084  RH  094%=      5-min Rain = 0
KFL1 091336Z 04006KT M08/M09 A3037 RMK A01 T10761085  RH  094%=      5-min Rain = 0
KFL1 091337Z 04006KT M08/M09 A3037 RMK A01 T10761085  RH  094%=      5-min Rain = 0
KFL1 091338Z 04005KT M08/M09 A3037 RMK A01 T10761085  RH  094%=      5-min Rain = 0
KFL1 091339Z 04006KT M08/M09 A3037 RMK A01 T10761085  RH  094%=      5-min Rain = 0
KFL1 091340Z 04005KT M08/M09 A3037 RMK A01 T10761085  RH  094%=      5-min Rain = 0
KFL1 091341Z 04005KT M08/M09 A3036 RMK A01 T10771086  RH  093%=      5-min Rain = 0
KFL1 091342Z 04006KT M08/M09 A3036 RMK A01 T10781087  RH  093%=      5-min Rain = 0
KFL1 091343Z 04006KT M08/M09 A3036 RMK A01 T10771085  RH  094%=      5-min Rain = 0
KFL1 091344Z 04006KT M08/M09 A3036 RMK A01 T10771085  RH  094%=      5-min Rain = 0
KFL1 091345Z 04006KT M08/M09 A3036 RMK A01 T10781087  RH  093%=      5-min Rain = 0
KFL1 091346Z 04006KT M08/M09 A3036 RMK A01 T10781088  RH  093%=      5-min Rain = 0
KFL1 091347Z 04005KT M08/M09 A3036 RMK A01 T10791089  RH  093%=      5-min Rain = 0
KFL1 091348Z 04006KT M08/M09 A3036 RMK A01 T10801089  RH  093%=      5-min Rain = 0
KFL1 091349Z 04006KT M08/M09 A3036 RMK A01 T10811090  RH  093%=      5-min Rain = 0
KFL1 091350Z 03007KT M08/M09 A3037 RMK A01 T10821092  RH  093%=      5-min Rain = 0
KFL1 091351Z 04006KT M08/M09 A3037 RMK A01 T10811091  RH  093%=      5-min Rain = 0
KFL1 091352Z 04006KT M08/M09 A3037 RMK A01 T10811090  RH  093%=      5-min Rain = 0
KFL1 091353Z 04005KT M08/M09 A3037 RMK A01 T10821091  RH  093%=      5-min Rain = 0
KFL1 091354Z 04006KT M08/M09 A3037 RMK A01 T10811090  RH  094%=      5-min Rain = 0
KFL1 091355Z 03006KT M08/M09 A3037 RMK A01 T10801089  RH  094%=      5-min Rain = 0
KFL1 091356Z 04006KT M08/M09 A3037 RMK A01 T10791087  RH  094%=      5-min Rain = 0
KFL1 091357Z 04006KT M08/M09 A3037 RMK A01 T10791087  RH  094%=      5-min Rain = 0
KFL1 091358Z 03006KT M08/M09 A3037 RMK A01 T10781087  RH  094%=      5-min Rain = 0
KFL1 091359Z 04006KT M08/M09 A3037 RMK A01 T10781086  RH  094%=      5-min Rain = 0
KFL1 091400Z 04006KT M08/M08 A3037 RMK A01 T10761084  RH  094%=      5-min Rain = 0
KFL1 091401Z 04006KT M08/M09 A3037 RMK A01 T10771085  RH  094%=      5-min Rain = 0
KFL1 091402Z 04006KT M08/M08 A3037 RMK A01 T10761084  RH  094%=      5-min Rain = 0
KFL1 091403Z 04006KT M08/M09 A3037 RMK A01 T10771085  RH  094%=      5-min Rain = 0
KFL1 091404Z 04006KT M08/M09 A3037 RMK A01 T10771086  RH  093%=      5-min Rain = 0
KFL1 091405Z 04006KT M08/M09 A3037 RMK A01 T10761086  RH  093%=      5-min Rain = 0
KFL1 091406Z 04006KT M08/M09 A3037 RMK A01 T10781088  RH  093%=      5-min Rain = 0
KFL1 091407Z 04006KT M08/M09 A3037 RMK A01 T10791089  RH  093%=      5-min Rain = 0
KFL1 091408Z 04005KT M08/M09 A3037 RMK A01 T10781088  RH  093%=      5-min Rain = 0
KFL1 091409Z 04006KT M08/M09 A3037 RMK A01 T10791088  RH  093%=      5-min Rain = 0
KFL1 091410Z 04005KT M08/M09 A3037 RMK A01 T10791088  RH  093%=      5-min Rain = 0
KFL1 091411Z 04006KT M08/M09 A3037 RMK A01 T10791088  RH  093%=      5-min Rain = 0
KFL1 091412Z 04006KT M08/M09 A3037 RMK A01 T10771085  RH  094%=      5-min Rain = 0
KFL1 091413Z 04006KT M08/M09 A3037 RMK A01 T10771085  RH  094%=      5-min Rain = 0
KFL1 091414Z 05006KT M08/M09 A3037 RMK A01 T10771085  RH  094%=      5-min Rain = 0
KFL1 091415Z 04005KT M07/M08 A3037 RMK A01 T10741082  RH  094%=      5-min Rain = 0
KFL1 091416Z 04005KT M08/M08 A3037 RMK A01 T10751084  RH  094%=      5-min Rain = 0
KFL1 091417Z 04006KT M08/M08 A3037 RMK A01 T10761084  RH  094%=      5-min Rain = 0
KFL1 091418Z 04006KT M08/M09 A3037 RMK A01 T10761085  RH  094%=      5-min Rain = 0
KFL1 091419Z 04005KT M07/M08 A3037 RMK A01 T10741083  RH  093%=      5-min Rain = 0
KFL1 091420Z 04006KT M08/M09 A3037 RMK A01 T10771086  RH  093%=      5-min Rain = 0
KFL1 091421Z 04006KT M08/M09 A3037 RMK A01 T10771086  RH  093%=      5-min Rain = 0
KFL1 091422Z 04006KT M08/M09 A3037 RMK A01 T10771086  RH  093%=      5-min Rain = 0
KFL1 091423Z 04006KT M08/M09 A3038 RMK A01 T10761085  RH  093%=      5-min Rain = 0
KFL1 091424Z 04005KT M08/M09 A3038 RMK A01 T10771086  RH  093%=      5-min Rain = 0
KFL1 091425Z 04005KT M08/M09 A3038 RMK A01 T10771086  RH  093%=      5-min Rain = 0
KFL1 091426Z 03005KT M08/M09 A3038 RMK A01 T10781088  RH  093%=      5-min Rain = 0
KFL1 091427Z 03005KT M08/M09 A3038 RMK A01 T10771087  RH  093%=      5-min Rain = 0
KFL1 091428Z 04005KT M08/M09 A3038 RMK A01 T10781088  RH  093%=      5-min Rain = 0
KFL1 091429Z 04005KT M08/M09 A3038 RMK A01 T10771087  RH  093%=      5-min Rain = 0
KFL1 091430Z 04005KT M08/M09 A3038 RMK A01 T10771086  RH  093%=      5-min Rain = 0
KFL1 091431Z 04006KT M08/M08 A3038 RMK A01 T10751084  RH  093%=      5-min Rain = 0
KFL1 091432Z 04005KT M07/M08 A3038 RMK A01 T10741084  RH  093%=      5-min Rain = 0
KFL1 091433Z 05005KT M08/M08 A3038 RMK A01 T10751084  RH  093%=      5-min Rain = 0
KFL1 091434Z 05005KT M08/M09 A3038 RMK A01 T10751085  RH  093%=      5-min Rain = 0
KFL1 091435Z 04004KT M07/M08 A3038 RMK A01 T10731083  RH  093%=      5-min Rain = 0
KFL1 091436Z 04004KT M07/M08 A3038 RMK A01 T10731083  RH  092%=      5-min Rain = 0
KFL1 091437Z 04004KT M08/M09 A3038 RMK A01 T10761089  RH  091%=      5-min Rain = 0
KFL1 091438Z 05003KT M08/M10 A3038 RMK A01 T10831100  RH  088%=      5-min Rain = 0
KFL1 091439Z 04003KT M09/M11 A3038 RMK A01 T10871106  RH  087%=      5-min Rain = 0
KFL1 091440Z 04003KT M09/M11 A3038 RMK A01 T10921111  RH  086%=      5-min Rain = 0
KFL1 091441Z 04004KT M09/M11 A3038 RMK A01 T10931111  RH  087%=      5-min Rain = 0
KFL1 091442Z 04004KT M09/M11 A3038 RMK A01 T10941112  RH  087%=      5-min Rain = 0
KFL1 091443Z 04004KT M10/M11 A3038 RMK A01 T10961113  RH  088%=      5-min Rain = 0
KFL1 091444Z 05004KT M09/M11 A3038 RMK A01 T10941108  RH  089%=      5-min Rain = 0
KFL1 091445Z 05005KT M09/M10 A3038 RMK A01 T10901103  RH  091%=      5-min Rain = 0
KFL1 091446Z 04005KT M09/M09 A3038 RMK A01 T10851094  RH  093%=      5-min Rain = 0
KFL1 091447Z 04006KT M08/M09 A3038 RMK A01 T10791087  RH  094%=      5-min Rain = 0
KFL1 091448Z 03005KT M08/M08 A3038 RMK A01 T10771084  RH  094%=      5-min Rain = 0
KFL1 091449Z 04005KT M08/M09 A3038 RMK A01 T10761086  RH  093%=      5-min Rain = 0
KFL1 091450Z 03005KT M08/M09 A3038 RMK A01 T10811094  RH  091%=      5-min Rain = 0
KFL1 091451Z 03004KT M08/M10 A3038 RMK A01 T10821095  RH  091%=      5-min Rain = 0
KFL1 091452Z 05003KT M08/M09 A3038 RMK A01 T10801092  RH  091%=      5-min Rain = 0
KFL1 091453Z 04004KT M08/M09 A3038 RMK A01 T10781089  RH  092%=      5-min Rain = 0
KFL1 091454Z 03004KT M08/M09 A3038 RMK A01 T10761087  RH  092%=      5-min Rain = 0
KFL1 091455Z 03003KT M08/M09 A3038 RMK A01 T10751085  RH  093%=      5-min Rain = 0
KFL1 091456Z 02003KT M07/M09 A3038 RMK A01 T10731085  RH  092%=      5-min Rain = 0
KFL1 091457Z 02003KT M08/M10 A3038 RMK A01 T10801096  RH  089%=      5-min Rain = 0
KFL1 091458Z 04003KT M09/M11 A3038 RMK A01 T10871106  RH  086%=      5-min Rain = 0
KFL1 091459Z 05004KT M09/M11 A3038 RMK A01 T10891107  RH  087%=      5-min Rain = 0
KFL1 091500Z 06003KT M09/M10 A3038 RMK A01 T10871103  RH  088%=      5-min Rain = 0
KFL1 091501Z 05005KT M08/M10 A3038 RMK A01 T10831095  RH  091%=      5-min Rain = 0
KFL1 091502Z 05004KT M08/M09 A3038 RMK A01 T10781088  RH  093%=      5-min Rain = 0
KFL1 091503Z 05004KT M08/M08 A3038 RMK A01 T10751084  RH  094%=      5-min Rain = 0
KFL1 091504Z 05004KT M07/M08 A3038 RMK A01 T10721081  RH  094%=      5-min Rain = 0
KFL1 091505Z 04004KT M07/M08 A3039 RMK A01 T10691077  RH  094%=      5-min Rain = 0
KFL1 091506Z 05004KT M07/M08 A3039 RMK A01 T10691077  RH  094%=      5-min Rain = 0
KFL1 091507Z 05004KT M07/M08 A3039 RMK A01 T10661075  RH  094%=      5-min Rain = 0
KFL1 091508Z 04004KT M07/M07 A3039 RMK A01 T10661074  RH  093%=      5-min Rain = 0
KFL1 091509Z 04004KT M06/M07 A3039 RMK A01 T10641073  RH  093%=      5-min Rain = 0
KFL1 091510Z 04004KT M06/M07 A3039 RMK A01 T10621071  RH  093%=      5-min Rain = 0
KFL1 091511Z 04004KT M06/M07 A3039 RMK A01 T10631073  RH  092%=      5-min Rain = 0
KFL1 091512Z 04004KT M06/M08 A3039 RMK A01 T10641075  RH  092%=      5-min Rain = 0
KFL1 091513Z 04003KT M06/M07 A3039 RMK A01 T10621073  RH  092%=      5-min Rain = 0
KFL1 091514Z 04004KT M06/M07 A3039 RMK A01 T10621073  RH  092%=      5-min Rain = 0
KFL1 091515Z 05004KT M06/M07 A3039 RMK A01 T10601071  RH  092%=      5-min Rain = 0
KFL1 091516Z 05005KT M06/M07 A3039 RMK A01 T10611072  RH  092%=      5-min Rain = 0
KFL1 091517Z 04005KT M06/M07 A3039 RMK A01 T10611073  RH  091%=      5-min Rain = 0
KFL1 091518Z 04004KT M06/M07 A3039 RMK A01 T10611073  RH  091%=      5-min Rain = 0
KFL1 091519Z 05004KT M06/M07 A3039 RMK A01 T10611073  RH  091%=      5-min Rain = 0
KFL1 091520Z 04004KT M06/M07 A3039 RMK A01 T10601072  RH  091%=      5-min Rain = 0
KFL1 091521Z 04004KT M06/M07 A3039 RMK A01 T10571069  RH  092%=      5-min Rain = 0
KFL1 091522Z 04003KT M06/M07 A3039 RMK A01 T10581070  RH  092%=      5-min Rain = 0
KFL1 091523Z 04003KT M06/M07 A3039 RMK A01 T10601073  RH  091%=      5-min Rain = 0
KFL1 091524Z 04004KT M06/M08 A3039 RMK A01 T10611075  RH  090%=      5-min Rain = 0
KFL1 091525Z 05004KT M06/M08 A3039 RMK A01 T10621075  RH  091%=      5-min Rain = 0
KFL1 091526Z 05004KT M06/M07 A3039 RMK A01 T10591070  RH  092%=      5-min Rain = 0
KFL1 091527Z 05005KT M06/M07 A3039 RMK A01 T10581068  RH  092%=      5-min Rain = 0
KFL1 091528Z 04004KT M06/M07 A3039 RMK A01 T10561067  RH  092%=      5-min Rain = 0
KFL1 091529Z 04004KT M06/M07 A3039 RMK A01 T10581069  RH  092%=      5-min Rain = 0
KFL1 091530Z 04004KT M06/M07 A3039 RMK A01 T10561067  RH  092%=      5-min Rain = 0
KFL1 091531Z 03003KT M06/M07 A3039 RMK A01 T10551067  RH  092%=      5-min Rain = 0
KFL1 091532Z 04003KT M06/M07 A304 RMK A01 T10561067  RH  092%=      5-min Rain = 0
KFL1 091533Z 04003KT M06/M07 A304 RMK A01 T10551067  RH  091%=      5-min Rain = 0
KFL1 091534Z 03004KT M06/M07 A304 RMK A01 T10551067  RH  091%=      5-min Rain = 0
KFL1 091535Z 03004KT M06/M07 A304 RMK A01 T10551067  RH  091%=      5-min Rain = 0
KFL1 091536Z 04002KT M05/M07 A304 RMK A01 T10541067  RH  091%=      5-min Rain = 0
KFL1 091537Z 03003KT M05/M07 A304 RMK A01 T10541067  RH  091%=      5-min Rain = 0
KFL1 091538Z 04003KT M06/M07 A304 RMK A01 T10561069  RH  090%=      5-min Rain = 0
KFL1 091539Z 03003KT M06/M07 A304 RMK A01 T10571071  RH  090%=      5-min Rain = 0
KFL1 091540Z 03003KT M06/M07 A304 RMK A01 T10571071  RH  090%=      5-min Rain = 0
KFL1 091541Z 05004KT M06/M07 A304 RMK A01 T10581070  RH  091%=      5-min Rain = 0
KFL1 091542Z 05003KT M06/M07 A304 RMK A01 T10571069  RH  091%=      5-min Rain = 0
KFL1 091543Z 05003KT M06/M07 A304 RMK A01 T10551065  RH  092%=      5-min Rain = 0
KFL1 091544Z 04003KT M05/M06 A304 RMK A01 T10511062  RH  093%=      5-min Rain = 0
KFL1 091545Z 05003KT M05/M06 A304 RMK A01 T10501060  RH  093%=      5-min Rain = 0
KFL1 091546Z 04003KT M05/M06 A304 RMK A01 T10501061  RH  092%=      5-min Rain = 0
KFL1 091547Z 04002KT M05/M06 A304 RMK A01 T10491060  RH  092%=      5-min Rain = 0
KFL1 091548Z 07001KT M05/M06 A304 RMK A01 T10491060  RH  092%=      5-min Rain = 0
KFL1 091549Z 06003KT M05/M06 A304 RMK A01 T10491060  RH  092%=      5-min Rain = 0
KFL1 091550Z 05003KT M05/M06 A304 RMK A01 T10481059  RH  092%=      5-min Rain = 0
KFL1 091551Z 04003KT M05/M06 A304 RMK A01 T10471058  RH  092%=      5-min Rain = 0
KFL1 091552Z 04003KT M05/M06 A304 RMK A01 T10451057  RH  092%=      5-min Rain = 0
KFL1 091553Z 05002KT M05/M06 A304 RMK A01 T10471059  RH  091%=      5-min Rain = 0
KFL1 091554Z 05003KT M05/M06 A304 RMK A01 T10471059  RH  091%=      5-min Rain = 0
KFL1 091555Z 05002KT M05/M06 A304 RMK A01 T10461057  RH  092%=      5-min Rain = 0
KFL1 091556Z 06002KT M05/M06 A304 RMK A01 T10451057  RH  092%=      5-min Rain = 0
KFL1 091557Z 05003KT M04/M06 A304 RMK A01 T10441056  RH  092%=      5-min Rain = 0
KFL1 091558Z 05003KT M04/M06 A304 RMK A01 T10431055  RH  092%=      5-min Rain = 0
KFL1 091559Z 06003KT M04/M05 A304 RMK A01 T10421054  RH  092%=      5-min Rain = 0
KFL1 091600Z 05003KT M04/M06 A304 RMK A01 T10431055  RH  091%=      5-min Rain = 0
KFL1 091601Z 04003KT M04/M06 A3041 RMK A01 T10431056  RH  091%=      5-min Rain = 0
KFL1 091602Z 05003KT M04/M06 A3041 RMK A01 T10431056  RH  091%=      5-min Rain = 0
KFL1 091603Z 06003KT M04/M06 A3041 RMK A01 T10441057  RH  091%=      5-min Rain = 0
KFL1 091604Z 06002KT M04/M06 A3041 RMK A01 T10441056  RH  091%=      5-min Rain = 0
KFL1 091605Z 07002KT M04/M06 A3041 RMK A01 T10431056  RH  091%=      5-min Rain = 0
KFL1 091606Z 06003KT M04/M05 A3041 RMK A01 T10421054  RH  091%=      5-min Rain = 0
KFL1 091607Z 05002KT M04/M05 A3041 RMK A01 T10431054  RH  091%=      5-min Rain = 0
KFL1 091608Z 06002KT M04/M05 A3041 RMK A01 T10411053  RH  092%=      5-min Rain = 0
KFL1 091609Z 06003KT M04/M05 A3041 RMK A01 T10401052  RH  091%=      5-min Rain = 0
KFL1 091610Z 06002KT M04/M05 A3041 RMK A01 T10391052  RH  091%=      5-min Rain = 0
KFL1 091611Z 04002KT M04/M05 A3041 RMK A01 T10401052  RH  091%=      5-min Rain = 0
KFL1 091612Z 06002KT M04/M05 A3041 RMK A01 T10391052  RH  091%=      5-min Rain = 0
KFL1 091613Z 06002KT M04/M05 A3041 RMK A01 T10381052  RH  091%=      5-min Rain = 0
KFL1 091614Z 07003KT M04/M05 A3041 RMK A01 T10371051  RH  090%=      5-min Rain = 0
KFL1 091615Z 06003KT M04/M05 A3041 RMK A01 T10381052  RH  090%=      5-min Rain = 0
KFL1 091616Z 07003KT M04/M05 A3041 RMK A01 T10381053  RH  090%=      5-min Rain = 0
KFL1 091617Z 07003KT M04/M05 A3041 RMK A01 T10391053  RH  090%=      5-min Rain = 0
KFL1 091618Z 07003KT M04/M05 A3041 RMK A01 T10391054  RH  090%=      5-min Rain = 0
KFL1 091619Z 07002KT M04/M05 A3041 RMK A01 T10391054  RH  090%=      5-min Rain = 0
KFL1 091620Z 07002KT M04/M05 A3041 RMK A01 T10391053  RH  090%=      5-min Rain = 0
KFL1 091621Z 07003KT M04/M05 A3041 RMK A01 T10391054  RH  090%=      5-min Rain = 0
KFL1 091622Z 06003KT M04/M05 A3041 RMK A01 T10381052  RH  090%=      5-min Rain = 0
KFL1 091623Z 06003KT M04/M05 A3041 RMK A01 T10381053  RH  090%=      5-min Rain = 0
KFL1 091624Z 06003KT M04/M05 A3041 RMK A01 T10371052  RH  090%=      5-min Rain = 0
KFL1 091625Z 06002KT M04/M05 A3041 RMK A01 T10361051  RH  090%=      5-min Rain = 0
KFL1 091626Z 07002KT M04/M05 A3041 RMK A01 T10371052  RH  089%=      5-min Rain = 0
KFL1 091627Z 07002KT M04/M05 A3041 RMK A01 T10361051  RH  089%=      5-min Rain = 0
KFL1 091628Z 07001KT M04/M05 A3041 RMK A01 T10361051  RH  089%=      5-min Rain = 0
KFL1 091629Z 07002KT M04/M05 A3041 RMK A01 T10361051  RH  089%=      5-min Rain = 0
KFL1 091630Z 06002KT M04/M05 A3041 RMK A01 T10361052  RH  089%=      5-min Rain = 0
KFL1 091631Z 06002KT M04/M05 A3041 RMK A01 T10351050  RH  089%=      5-min Rain = 0
KFL1 091632Z 06002KT M04/M05 A3041 RMK A01 T10351050  RH  089%=      5-min Rain = 0
KFL1 091633Z 06001KT M04/M05 A3041 RMK A01 T10351051  RH  089%=      5-min Rain = 0
KFL1 091634Z 09002KT M04/M05 A3041 RMK A01 T10351051  RH  089%=      5-min Rain = 0
KFL1 091635Z 10003KT M03/M05 A3041 RMK A01 T10341050  RH  089%=      5-min Rain = 0
KFL1 091636Z 08002KT M03/M05 A3041 RMK A01 T10321048  RH  089%=      5-min Rain = 0
KFL1 091637Z 07002KT M03/M05 A3041 RMK A01 T10311048  RH  088%=      5-min Rain = 0
KFL1 091638Z 07002KT M03/M05 A3041 RMK A01 T10301047  RH  088%=      5-min Rain = 0
KFL1 091639Z 07002KT M03/M05 A3041 RMK A01 T10301047  RH  088%=      5-min Rain = 0
KFL1 091640Z 08002KT M03/M05 A3041 RMK A01 T10291046  RH  088%=      5-min Rain = 0
KFL1 091641Z 08002KT M03/M05 A3041 RMK A01 T10301047  RH  088%=      5-min Rain = 0
KFL1 091642Z 07002KT M03/M05 A3041 RMK A01 T10301048  RH  087%=      5-min Rain = 0
KFL1 091643Z 05002KT M03/M05 A3041 RMK A01 T10291048  RH  087%=      5-min Rain = 0
KFL1 091644Z 06003KT M03/M05 A3041 RMK A01 T10301050  RH  086%=      5-min Rain = 0
KFL1 091645Z 06003KT M03/M05 A3041 RMK A01 T10291050  RH  086%=      5-min Rain = 0
KFL1 091646Z 06003KT M03/M05 A3041 RMK A01 T10301049  RH  086%=      5-min Rain = 0
KFL1 091647Z 07003KT M03/M05 A3042 RMK A01 T10291050  RH  086%=      5-min Rain = 0
KFL1 091648Z 07003KT M03/M05 A3042 RMK A01 T10291049  RH  086%=      5-min Rain = 0
KFL1 091649Z 07003KT M03/M05 A3042 RMK A01 T10281046  RH  087%=      5-min Rain = 0
KFL1 091650Z 07003KT M03/M05 A3042 RMK A01 T10261046  RH  086%=      5-min Rain = 0
KFL1 091651Z 08003KT M03/M05 A3042 RMK A01 T10261048  RH  085%=      5-min Rain = 0
KFL1 091652Z 08003KT M03/M05 A3042 RMK A01 T10261049  RH  084%=      5-min Rain = 0
KFL1 091653Z 09002KT M03/M05 A3042 RMK A01 T10261049  RH  084%=      5-min Rain = 0
KFL1 091654Z 10003KT M03/M05 A3042 RMK A01 T10251049  RH  084%=      5-min Rain = 0
KFL1 091655Z 10003KT M02/M05 A3042 RMK A01 T10241050  RH  083%=      5-min Rain = 0
KFL1 091656Z 08002KT M02/M05 A3042 RMK A01 T10231051  RH  081%=      5-min Rain = 0
KFL1 091657Z 08003KT M02/M05 A3042 RMK A01 T10221050  RH  082%=      5-min Rain = 0
KFL1 091658Z 08003KT M02/M05 A3042 RMK A01 T10221050  RH  081%=      5-min Rain = 0
KFL1 091659Z 08004KT M02/M05 A3042 RMK A01 T10201048  RH  081%=      5-min Rain = 0
KFL1 091700Z 09004KT M02/M05 A3042 RMK A01 T10201047  RH  081%=      5-min Rain = 0
KFL1 091701Z 08004KT M02/M05 A3042 RMK A01 T10201049  RH  081%=      5-min Rain = 0
KFL1 091702Z 08004KT M02/M05 A3042 RMK A01 T10211050  RH  080%=      5-min Rain = 0
KFL1 091703Z 09004KT M02/M05 A3042 RMK A01 T10201051  RH  079%=      5-min Rain = 0
KFL1 091704Z 08004KT M02/M05 A3042 RMK A01 T10211051  RH  080%=      5-min Rain = 0
KFL1 091705Z 08004KT M02/M05 A3042 RMK A01 T10191050  RH  080%=      5-min Rain = 0
KFL1 091706Z 06003KT M02/M05 A3042 RMK A01 T10191050  RH  079%=      5-min Rain = 0
KFL1 091707Z 07002KT M02/M05 A3043 RMK A01 T10171048  RH  079%=      5-min Rain = 0
KFL1 091708Z 07003KT M02/M05 A3043 RMK A01 T10161049  RH  078%=      5-min Rain = 0
KFL1 091709Z 08003KT M02/M05 A3043 RMK A01 T10171050  RH  078%=      5-min Rain = 0
KFL1 091710Z 09003KT M02/M05 A3043 RMK A01 T10151049  RH  077%=      5-min Rain = 0
KFL1 091711Z 11002KT M01/M05 A3043 RMK A01 T10131049  RH  076%=      5-min Rain = 0
KFL1 091712Z 11002KT M01/M05 A3043 RMK A01 T10141052  RH  075%=      5-min Rain = 0
KFL1 091713Z 09003KT M01/M05 A3043 RMK A01 T10141053  RH  074%=      5-min Rain = 0
KFL1 091714Z 07002KT M02/M05 A3043 RMK A01 T10151054  RH  075%=      5-min Rain = 0
KFL1 091715Z 08001KT M02/M05 A3043 RMK A01 T10161054  RH  075%=      5-min Rain = 0
KFL1 091716Z 13001KT M02/M06 A3043 RMK A01 T10151055  RH  074%=      5-min Rain = 0
KFL1 091717Z 14002KT M02/M06 A3043 RMK A01 T10151056  RH  074%=      5-min Rain = 0
KFL1 091718Z 12001KT M01/M05 A3043 RMK A01 T10141054  RH  074%=      5-min Rain = 0
KFL1 091719Z 13002KT M01/M06 A3043 RMK A01 T10131055  RH  073%=      5-min Rain = 0
KFL1 091720Z 12003KT M01/M06 A3043 RMK A01 T10121055  RH  073%=      5-min Rain = 0
KFL1 091721Z 13003KT M01/M06 A3043 RMK A01 T10141057  RH  072%=      5-min Rain = 0
KFL1 091722Z 12003KT M01/M06 A3043 RMK A01 T10141057  RH  072%=      5-min Rain = 0.01
KFL1 091723Z 12003KT M01/M06 A3043 RMK A01 T10131056  RH  072%=      5-min Rain = 0
KFL1 091724Z 11003KT M01/M06 A3043 RMK A01 T10121055  RH  072%=      5-min Rain = 0
KFL1 091725Z 12004KT M01/M06 A3043 RMK A01 T10121056  RH  072%=      5-min Rain = 0
KFL1 091726Z 11003KT M01/M06 A3043 RMK A01 T10121055  RH  072%=      5-min Rain = 0
KFL1 091727Z 12004KT M01/M06 A3043 RMK A01 T10131056  RH  072%=      5-min Rain = 0
KFL1 091728Z 12003KT M01/M05 A3043 RMK A01 T10131054  RH  074%=      5-min Rain = 0
KFL1 091729Z 14002KT M01/M05 A3043 RMK A01 T10111052  RH  073%=      5-min Rain = 0
KFL1 091730Z 14003KT M01/M06 A3043 RMK A01 T10101056  RH  071%=      5-min Rain = 0
KFL1 091731Z 15001KT M01/M06 A3043 RMK A01 T10121058  RH  071%=      5-min Rain = 0
KFL1 091732Z 15003KT M01/M06 A3042 RMK A01 T10111057  RH  071%=      5-min Rain = 0
KFL1 091733Z 11003KT M01/M06 A3042 RMK A01 T10101058  RH  070%=      5-min Rain = 0
KFL1 091734Z 16003KT M01/M06 A3042 RMK A01 T10091058  RH  070%=      5-min Rain = 0
KFL1 091735Z 16003KT M01/M06 A3042 RMK A01 T10091058  RH  070%=      5-min Rain = 0
KFL1 091736Z 15003KT M01/M06 A3042 RMK A01 T10091060  RH  069%=      5-min Rain = 0
KFL1 091737Z 15003KT M01/M06 A3042 RMK A01 T10081060  RH  068%=      5-min Rain = 0
KFL1 091738Z 13002KT M01/M06 A3042 RMK A01 T10081061  RH  067%=      5-min Rain = 0
KFL1 091739Z 15003KT M01/M06 A3042 RMK A01 T10091062  RH  068%=      5-min Rain = 0
KFL1 091740Z 15002KT M01/M06 A3042 RMK A01 T10101062  RH  068%=      5-min Rain = 0
KFL1 091741Z 13002KT M01/M06 A3042 RMK A01 T10101062  RH  068%=      5-min Rain = 0
KFL1 091742Z 15003KT M01/M06 A3042 RMK A01 T10111063  RH  068%=      5-min Rain = 0
KFL1 091743Z 16003KT M01/M06 A3042 RMK A01 T10111064  RH  067%=      5-min Rain = 0
KFL1 091744Z 16002KT M01/M06 A3042 RMK A01 T10091060  RH  068%=      5-min Rain = 0
KFL1 091745Z 15002KT M01/M06 A3042 RMK A01 T10071061  RH  067%=      5-min Rain = 0
KFL1 091746Z 14002KT M01/M06 A3042 RMK A01 T10081063  RH  066%=      5-min Rain = 0
KFL1 091747Z 14003KT M01/M06 A3042 RMK A01 T10101064  RH  066%=      5-min Rain = 0
KFL1 091748Z 15003KT M01/M06 A3043 RMK A01 T10071062  RH  066%=      5-min Rain = 0
KFL1 091749Z 15003KT M01/M06 A3042 RMK A01 T10051061  RH  066%=      5-min Rain = 0
KFL1 091750Z 15002KT M01/M06 A3043 RMK A01 T10051063  RH  065%=      5-min Rain = 0
KFL1 091751Z 15001KT M01/M07 A3042 RMK A01 T10061065  RH  064%=      5-min Rain = 0
KFL1 091752Z 16000KT M01/M07 A3042 RMK A01 T10061065  RH  065%=      5-min Rain = 0
KFL1 091753Z 14002KT M00/M06 A3042 RMK A01 T10041061  RH  065%=      5-min Rain = 0
KFL1 091754Z 17003KT M00/M06 A3042 RMK A01 T10021061  RH  065%=      5-min Rain = 0
KFL1 091755Z 15003KT M00/M06 A3042 RMK A01 T10021063  RH  063%=      5-min Rain = 0
KFL1 091756Z 14003KT M00/M06 A3042 RMK A01 T10021064  RH  063%=      5-min Rain = 0
KFL1 091757Z 14002KT M00/M06 A3042 RMK A01 T10011061  RH  064%=      5-min Rain = 0
KFL1 091758Z 16002KT 00/06 A3042 RMK A01 T00000-62  RH  063%=      5-min Rain = 0
KFL1 091759Z 16003KT 00/M06 A3042 RMK A01 T00011064  RH  062%=      5-min Rain = 0
KFL1 091800Z 19001KT 00/M06 A3042 RMK A01 T00011063  RH  062%=      5-min Rain = 0
KFL1 091801Z 14001KT 00/M06 A3042 RMK A01 T00021063  RH  062%=      5-min Rain = 0
KFL1 091802Z 16003KT 00/07 A3042 RMK A01 T00000-66  RH  061%=      5-min Rain = 0
KFL1 091803Z 16002KT M00/M07 A3042 RMK A01 T10011066  RH  061%=      5-min Rain = 0
KFL1 091804Z 15003KT M00/M07 A3042 RMK A01 T10041069  RH  062%=      5-min Rain = 0
KFL1 091805Z 14003KT M00/M07 A3042 RMK A01 T10041066  RH  063%=      5-min Rain = 0
KFL1 091806Z 15002KT M01/M07 A3042 RMK A01 T10051068  RH  063%=      5-min Rain = 0
KFL1 091807Z 14002KT M00/M07 A3042 RMK A01 T10041066  RH  063%=      5-min Rain = 0
KFL1 091808Z 14002KT M00/M06 A3042 RMK A01 T10021062  RH  064%=      5-min Rain = 0
KFL1 091809Z 15002KT M00/M06 A3042 RMK A01 T10011063  RH  063%=      5-min Rain = 0
KFL1 091810Z 13001KT 00/07 A3042 RMK A01 T00000-65  RH  061%=      5-min Rain = 0
KFL1 091811Z 14002KT M00/M07 A3042 RMK A01 T10021068  RH  061%=      5-min Rain = 0
KFL1 091812Z 15001KT M00/M07 A3042 RMK A01 T10031067  RH  062%=      5-min Rain = 0
KFL1 091813Z 16000KT M00/M07 A3042 RMK A01 T10041066  RH  063%=      5-min Rain = 0
KFL1 091814Z 14002KT M00/M07 A3042 RMK A01 T10031066  RH  062%=      5-min Rain = 0
KFL1 091815Z 15002KT 00/07 A3042 RMK A01 T00-00-65  RH  062%=      5-min Rain = 0
KFL1 091816Z 17001KT 00/M06 A3042 RMK A01 T00011063  RH  062%=      5-min Rain = 0
KFL1 091817Z 13002KT 00/M07 A3042 RMK A01 T00021065  RH  061%=      5-min Rain = 0
KFL1 091818Z 11001KT 00/M07 A3042 RMK A01 T00031066  RH  060%=      5-min Rain = 0
KFL1 091819Z 11001KT 00/M07 A3042 RMK A01 T00031066  RH  060%=      5-min Rain = 0
KFL1 091820Z 10003KT 00/M07 A3042 RMK A01 T00041066  RH  059%=      5-min Rain = 0
KFL1 091821Z 12002KT 01/M07 A3042 RMK A01 T00051065  RH  059%=      5-min Rain = 0
KFL1 091822Z 09001KT 01/M06 A3042 RMK A01 T00061064  RH  059%=      5-min Rain = 0
KFL1 091823Z 34001KT 01/M06 A3042 RMK A01 T00061061  RH  061%=      5-min Rain = 0
KFL1 091824Z 32002KT 01/M06 A3042 RMK A01 T00061060  RH  061%=      5-min Rain = 0
KFL1 091825Z 32002KT 00/M06 A3042 RMK A01 T00041064  RH  060%=      5-min Rain = 0
KFL1 091826Z 33001KT 00/M06 A3042 RMK A01 T00021062  RH  062%=      5-min Rain = 0
KFL1 091827Z 31001KT 00/M06 A3041 RMK A01 T00011058  RH  064%=      5-min Rain = 0
KFL1 091828Z 31001KT 00/M06 A3041 RMK A01 T00021060  RH  063%=      5-min Rain = 0
KFL1 091829Z 30002KT 00/M06 A3041 RMK A01 T00031058  RH  064%=      5-min Rain = 0
KFL1 091830Z 29002KT 00/M06 A3041 RMK A01 T00021058  RH  064%=      5-min Rain = 0
KFL1 091831Z 28002KT 00/M06 A3041 RMK A01 T00021058  RH  064%=      5-min Rain = 0
KFL1 091832Z 29003KT 00/M06 A3041 RMK A01 T00011063  RH  062%=      5-min Rain = 0
KFL1 091833Z 30003KT M00/M06 A3041 RMK A01 T10011064  RH  062%=      5-min Rain = 0
KFL1 091834Z 31002KT 00/06 A3041 RMK A01 T00-00-63  RH  063%=      5-min Rain = 0
KFL1 091835Z 32002KT 00/06 A3041 RMK A01 T00-00-59  RH  065%=      5-min Rain = 0
KFL1 091836Z 31001KT 00/06 A3041 RMK A01 T00-00-57  RH  065%=      5-min Rain = 0
KFL1 091837Z 31001KT 00/06 A3041 RMK A01 T00-00-59  RH  065%=      5-min Rain = 0
KFL1 091838Z 30001KT M00/M06 A3041 RMK A01 T10031062  RH  064%=      5-min Rain = 0
KFL1 091839Z 29000KT M00/M06 A3041 RMK A01 T10021064  RH  063%=      5-min Rain = 0
KFL1 091840Z 28001KT M00/M06 A3041 RMK A01 T10011061  RH  064%=      5-min Rain = 0
KFL1 091841Z 26001KT M00/M06 A3041 RMK A01 T10021064  RH  063%=      5-min Rain = 0
KFL1 091842Z 28001KT M00/M07 A3041 RMK A01 T10021065  RH  062%=      5-min Rain = 0
KFL1 091843Z 29000KT 00/06 A3041 RMK A01 T00-00-63  RH  063%=      5-min Rain = 0
KFL1 091844Z 29001KT M00/M06 A3041 RMK A01 T10011063  RH  063%=      5-min Rain = 0
KFL1 091845Z 27001KT 00/M06 A3041 RMK A01 T00011060  RH  063%=      5-min Rain = 0
KFL1 091846Z 26001KT 00/M06 A3041 RMK A01 T00011064  RH  062%=      5-min Rain = 0
KFL1 091847Z 27001KT 00/M07 A3041 RMK A01 T00011065  RH  061%=      5-min Rain = 0
KFL1 091848Z 27001KT 00/M06 A3041 RMK A01 T00021064  RH  061%=      5-min Rain = 0
KFL1 091849Z 27001KT 00/M07 A3041 RMK A01 T00021065  RH  061%=      5-min Rain = 0
KFL1 091850Z 29000KT 00/M07 A3041 RMK A01 T00011065  RH  061%=      5-min Rain = 0
KFL1 091851Z 29000KT 00/M06 A3041 RMK A01 T00031062  RH  062%=      5-min Rain = 0
KFL1 091852Z 30001KT 00/M06 A3041 RMK A01 T00031061  RH  062%=      5-min Rain = 0
KFL1 091853Z 29001KT 00/M06 A3041 RMK A01 T00041064  RH  060%=      5-min Rain = 0
KFL1 091854Z 28000KT 00/M06 A3041 RMK A01 T00031064  RH  061%=      5-min Rain = 0
KFL1 091855Z 29001KT 00/M06 A3041 RMK A01 T00041063  RH  061%=      5-min Rain = 0
KFL1 091856Z 27002KT 00/M06 A304 RMK A01 T00031060  RH  063%=      5-min Rain = 0
KFL1 091857Z 28002KT 01/M06 A304 RMK A01 T00051059  RH  062%=      5-min Rain = 0
KFL1 091858Z 28003KT 00/M06 A304 RMK A01 T00031064  RH  061%=      5-min Rain = 0
KFL1 091859Z 28002KT 00/M06 A304 RMK A01 T00031061  RH  062%=      5-min Rain = 0
KFL1 091900Z 27002KT 00/M06 A304 RMK A01 T00031064  RH  061%=      5-min Rain = 0
KFL1 091901Z 27002KT 00/M07 A304 RMK A01 T00041065  RH  060%=      5-min Rain = 0
KFL1 091902Z 26001KT 00/M07 A304 RMK A01 T00041066  RH  059%=      5-min Rain = 0
KFL1 091903Z 26000KT 01/M07 A304 RMK A01 T00051066  RH  059%=      5-min Rain = 0
KFL1 091904Z 29000KT 01/M07 A304 RMK A01 T00061065  RH  059%=      5-min Rain = 0
KFL1 091905Z 00000KT 01/M06 A304 RMK A01 T00061063  RH  060%=      5-min Rain = 0
KFL1 091906Z 02000KT 01/M06 A304 RMK A01 T00071063  RH  060%=      5-min Rain = 0
KFL1 091907Z 33001KT 01/M07 A304 RMK A01 T00051066  RH  059%=      5-min Rain = 0
KFL1 091908Z 30001KT 00/M06 A304 RMK A01 T00031061  RH  062%=      5-min Rain = 0
KFL1 091909Z 29000KT 01/M06 A304 RMK A01 T00051058  RH  063%=      5-min Rain = 0
KFL1 091910Z 00000KT 01/M06 A304 RMK A01 T00091057  RH  061%=      5-min Rain = 0
KFL1 091911Z 24001KT 01/M06 A304 RMK A01 T00131059  RH  058%=      5-min Rain = 0
KFL1 091912Z 26001KT 02/M06 A304 RMK A01 T00171062  RH  056%=      5-min Rain = 0
KFL1 091913Z 27001KT 02/M06 A304 RMK A01 T00221060  RH  055%=      5-min Rain = 0
KFL1 091914Z 27002KT 02/M06 A304 RMK A01 T00231060  RH  054%=      5-min Rain = 0
KFL1 091915Z 25002KT 02/M06 A304 RMK A01 T00211062  RH  054%=      5-min Rain = 0
KFL1 091916Z 24002KT 02/M06 A3039 RMK A01 T00211061  RH  055%=      5-min Rain = 0
KFL1 091917Z 22001KT 02/M07 A3039 RMK A01 T00171066  RH  054%=      5-min Rain = 0
KFL1 091918Z 24002KT 02/M07 A3039 RMK A01 T00171066  RH  054%=      5-min Rain = 0
KFL1 091919Z 24001KT 02/M07 A3039 RMK A01 T00151067  RH  055%=      5-min Rain = 0
KFL1 091920Z 22001KT 02/M07 A304 RMK A01 T00161065  RH  055%=      5-min Rain = 0
KFL1 091921Z 23002KT 02/M06 A304 RMK A01 T00171064  RH  055%=      5-min Rain = 0
KFL1 091922Z 22002KT 02/M07 A3039 RMK A01 T00171066  RH  054%=      5-min Rain = 0
KFL1 091923Z 22002KT 02/M07 A3039 RMK A01 T00151066  RH  055%=      5-min Rain = 0
KFL1 091924Z 25002KT 01/M06 A3039 RMK A01 T00141064  RH  056%=      5-min Rain = 0
KFL1 091925Z 25002KT 02/M06 A3039 RMK A01 T00161060  RH  057%=      5-min Rain = 0
KFL1 091926Z 24003KT 02/M06 A3039 RMK A01 T00161057  RH  058%=      5-min Rain = 0
KFL1 091927Z 23004KT 02/M06 A3039 RMK A01 T00191057  RH  057%=      5-min Rain = 0
KFL1 091928Z 23004KT 02/M06 A3039 RMK A01 T00181060  RH  056%=      5-min Rain = 0
KFL1 091929Z 22004KT 02/M06 A3039 RMK A01 T00171059  RH  057%=      5-min Rain = 0
KFL1 091930Z 22003KT 02/M06 A3039 RMK A01 T00171059  RH  057%=      5-min Rain = 0
KFL1 091931Z 22002KT 02/M06 A3039 RMK A01 T00151063  RH  056%=      5-min Rain = 0
KFL1 091932Z 20002KT 02/M06 A3039 RMK A01 T00161061  RH  057%=      5-min Rain = 0
KFL1 091933Z 18002KT 02/M06 A3039 RMK A01 T00201060  RH  056%=      5-min Rain = 0
KFL1 091934Z 19002KT 02/M06 A3039 RMK A01 T00211062  RH  054%=      5-min Rain = 0
KFL1 091935Z 22002KT 02/M06 A3039 RMK A01 T00211062  RH  054%=      5-min Rain = 0
KFL1 091936Z 22003KT 02/M06 A3039 RMK A01 T00231059  RH  055%=      5-min Rain = 0
KFL1 091937Z 23003KT 02/M06 A3039 RMK A01 T00241059  RH  054%=      5-min Rain = 0
KFL1 091938Z 23003KT 02/M06 A3039 RMK A01 T00221062  RH  054%=      5-min Rain = 0
KFL1 091939Z 23003KT 02/M06 A3039 RMK A01 T00181063  RH  055%=      5-min Rain = 0
KFL1 091940Z 22003KT 02/M06 A3039 RMK A01 T00181060  RH  056%=      5-min Rain = 0
KFL1 091941Z 23003KT 02/M06 A3039 RMK A01 T00181059  RH  057%=      5-min Rain = 0
KFL1 091942Z 21003KT 02/M06 A3039 RMK A01 T00171058  RH  058%=      5-min Rain = 0
KFL1 091943Z 21003KT 02/M06 A3039 RMK A01 T00181059  RH  057%=      5-min Rain = 0
KFL1 091944Z 17003KT 02/M06 A3039 RMK A01 T00181060  RH  056%=      5-min Rain = 0
KFL1 091945Z 19002KT 02/M06 A3039 RMK A01 T00221056  RH  056%=      5-min Rain = 0
KFL1 091946Z 21003KT 02/M06 A3039 RMK A01 T00231057  RH  055%=      5-min Rain = 0
KFL1 091947Z 23004KT 02/M06 A3039 RMK A01 T00231058  RH  055%=      5-min Rain = 0
KFL1 091948Z 22003KT 02/M06 A3039 RMK A01 T00221058  RH  055%=      5-min Rain = 0
KFL1 091949Z 21003KT 02/M06 A3038 RMK A01 T00211058  RH  056%=      5-min Rain = 0
KFL1 091950Z 23001KT 02/M06 A3038 RMK A01 T00231055  RH  056%=      5-min Rain = 0
KFL1 091951Z 21002KT 02/M06 A3038 RMK A01 T00231058  RH  055%=      5-min Rain = 0
KFL1 091952Z 21003KT 02/M06 A3039 RMK A01 T00221059  RH  055%=      5-min Rain = 0
KFL1 091953Z 17001KT 02/M06 A3039 RMK A01 T00211061  RH  055%=      5-min Rain = 0
KFL1 091954Z 20002KT 02/M06 A3039 RMK A01 T00221059  RH  055%=      5-min Rain = 0
KFL1 091955Z 21002KT 02/M06 A3039 RMK A01 T00231058  RH  055%=      5-min Rain = 0
KFL1 091956Z 22003KT 02/M06 A3039 RMK A01 T00211059  RH  055%=      5-min Rain = 0
KFL1 091957Z 22002KT 02/M06 A3038 RMK A01 T00211057  RH  056%=      5-min Rain = 0
KFL1 091958Z 22003KT 02/M06 A3038 RMK A01 T00201057  RH  056%=      5-min Rain = 0
KFL1 091959Z 22003KT 02/M06 A3038 RMK A01 T00211056  RH  057%=      5-min Rain = 0
KFL1 092000Z 21005KT 02/M06 A3038 RMK A01 T00231055  RH  056%=      5-min Rain = 0
KFL1 092001Z 23003KT 02/M06 A3038 RMK A01 T00231056  RH  056%=      5-min Rain = 0
KFL1 092002Z 22004KT 02/M06 A3038 RMK A01 T00221055  RH  056%=      5-min Rain = 0
KFL1 092003Z 22003KT 02/M06 A3038 RMK A01 T00221056  RH  056%=      5-min Rain = 0
KFL1 092004Z 22005KT 02/M06 A3038 RMK A01 T00221058  RH  056%=      5-min Rain = 0
KFL1 092005Z 21004KT 02/M06 A3038 RMK A01 T00201059  RH  056%=      5-min Rain = 0
KFL1 092006Z 22004KT 02/M06 A3038 RMK A01 T00211058  RH  056%=      5-min Rain = 0
KFL1 092007Z 21003KT 02/M06 A3038 RMK A01 T00211057  RH  056%=      5-min Rain = 0
KFL1 092008Z 22003KT 02/M06 A3038 RMK A01 T00221057  RH  056%=      5-min Rain = 0
KFL1 092009Z 21005KT 02/M06 A3038 RMK A01 T00231056  RH  056%=      5-min Rain = 0
KFL1 092010Z 21005KT 02/M06 A3038 RMK A01 T00231056  RH  056%=      5-min Rain = 0
KFL1 092011Z 22005KT 02/M06 A3038 RMK A01 T00221059  RH  055%=      5-min Rain = 0
KFL1 092012Z 21004KT 02/M06 A3038 RMK A01 T00221058  RH  055%=      5-min Rain = 0
KFL1 092013Z 22004KT 02/M06 A3038 RMK A01 T00221056  RH  056%=      5-min Rain = 0
KFL1 092014Z 21005KT 02/M06 A3038 RMK A01 T00231056  RH  056%=      5-min Rain = 0
KFL1 092015Z 21004KT 02/M05 A3038 RMK A01 T00231054  RH  057%=      5-min Rain = 0
KFL1 092016Z 20002KT 03/M05 A3038 RMK A01 T00251054  RH  056%=      5-min Rain = 0
KFL1 092017Z 21004KT 02/M06 A3038 RMK A01 T00241055  RH  056%=      5-min Rain = 0
KFL1 092018Z 21005KT 03/M06 A3038 RMK A01 T00251055  RH  056%=      5-min Rain = 0
KFL1 092019Z 21004KT 02/M06 A3038 RMK A01 T00241057  RH  055%=      5-min Rain = 0
KFL1 092020Z 21005KT 02/M06 A3038 RMK A01 T00241056  RH  056%=      5-min Rain = 0
KFL1 092021Z 22004KT 03/M06 A3038 RMK A01 T00251056  RH  055%=      5-min Rain = 0
KFL1 092022Z 22004KT 02/M06 A3038 RMK A01 T00241056  RH  055%=      5-min Rain = 0
KFL1 092023Z 22004KT 02/M06 A3038 RMK A01 T00241055  RH  056%=      5-min Rain = 0
KFL1 092024Z 22005KT 02/M06 A3038 RMK A01 T00221055  RH  057%=      5-min Rain = 0
KFL1 092025Z 21005KT 02/M06 A3038 RMK A01 T00221056  RH  056%=      5-min Rain = 0
KFL1 092026Z 21006KT 02/M06 A3038 RMK A01 T00221056  RH  056%=      5-min Rain = 0
KFL1 092027Z 20006KT 02/M06 A3038 RMK A01 T00221055  RH  056%=      5-min Rain = 0
KFL1 092028Z 21006KT 02/M05 A3038 RMK A01 T00231054  RH  057%=      5-min Rain = 0
KFL1 092029Z 20005KT 02/M06 A3038 RMK A01 T00231055  RH  056%=      5-min Rain = 0
KFL1 092030Z 21005KT 02/M06 A3038 RMK A01 T00201056  RH  057%=      5-min Rain = 0
KFL1 092031Z 20007KT 02/M06 A3038 RMK A01 T00211055  RH  057%=      5-min Rain = 0
KFL1 092032Z 21007KT 02/M06 A3038 RMK A01 T00211055  RH  057%=      5-min Rain = 0
KFL1 092033Z 21006KT 02/M06 A3038 RMK A01 T00211055  RH  057%=      5-min Rain = 0
KFL1 092034Z 21007KT 02/M06 A3038 RMK A01 T00181057  RH  057%=      5-min Rain = 0
KFL1 092035Z 22006KT 02/M06 A3038 RMK A01 T00181055  RH  058%=      5-min Rain = 0
KFL1 092036Z 22004KT 02/M06 A3038 RMK A01 T00171055  RH  059%=      5-min Rain = 0
KFL1 092037Z 20004KT 02/M05 A3037 RMK A01 T00181053  RH  059%=      5-min Rain = 0
KFL1 092038Z 21004KT 02/M05 A3038 RMK A01 T00181054  RH  059%=      5-min Rain = 0
KFL1 092039Z 19006KT 02/M05 A3038 RMK A01 T00181054  RH  059%=      5-min Rain = 0
KFL1 092040Z 22005KT 02/M05 A3038 RMK A01 T00191053  RH  059%=      5-min Rain = 0
KFL1 092041Z 23003KT 02/M05 A3038 RMK A01 T00201053  RH  058%=      5-min Rain = 0
KFL1 092042Z 23004KT 02/M05 A3038 RMK A01 T00191052  RH  059%=      5-min Rain = 0
KFL1 092043Z 22005KT 02/M05 A3037 RMK A01 T00201052  RH  059%=      5-min Rain = 0
KFL1 092044Z 22004KT 02/M05 A3037 RMK A01 T00201051  RH  059%=      5-min Rain = 0
KFL1 092045Z 22004KT 02/M05 A3037 RMK A01 T00201051  RH  059%=      5-min Rain = 0
KFL1 092046Z 22003KT 02/M05 A3037 RMK A01 T00201049  RH  060%=      5-min Rain = 0
KFL1 092047Z 22002KT 02/M05 A3037 RMK A01 T00191051  RH  060%=      5-min Rain = 0
KFL1 092048Z 22004KT 02/M05 A3037 RMK A01 T00161054  RH  060%=      5-min Rain = 0
KFL1 092049Z 21005KT 02/M05 A3037 RMK A01 T00171052  RH  060%=      5-min Rain = 0
KFL1 092050Z 21006KT 02/M05 A3037 RMK A01 T00171050  RH  061%=      5-min Rain = 0
KFL1 092051Z 21006KT 02/M05 A3037 RMK A01 T00171050  RH  061%=      5-min Rain = 0
KFL1 092052Z 21006KT 02/M05 A3037 RMK A01 T00181051  RH  060%=      5-min Rain = 0
KFL1 092053Z 22005KT 02/M05 A3037 RMK A01 T00191050  RH  060%=      5-min Rain = 0
KFL1 092054Z 21006KT 02/M05 A3037 RMK A01 T00181050  RH  061%=      5-min Rain = 0
KFL1 092055Z 20005KT 02/M05 A3037 RMK A01 T00181051  RH  060%=      5-min Rain = 0
KFL1 092056Z 21005KT 02/M05 A3037 RMK A01 T00181051  RH  060%=      5-min Rain = 0
KFL1 092057Z 20004KT 02/M05 A3037 RMK A01 T00181049  RH  061%=      5-min Rain = 0
KFL1 092058Z 18005KT 02/M05 A3037 RMK A01 T00201047  RH  061%=      5-min Rain = 0
KFL1 092059Z 21004KT 02/M05 A3037 RMK A01 T00211047  RH  061%=      5-min Rain = 0
KFL1 092100Z 22004KT 02/M05 A3037 RMK A01 T00201047  RH  061%=      5-min Rain = 0
KFL1 092101Z 21005KT 02/M05 A3037 RMK A01 T00201047  RH  061%=      5-min Rain = 0
KFL1 092102Z 21007KT 02/M05 A3037 RMK A01 T00191047  RH  062%=      5-min Rain = 0
KFL1 092103Z 20005KT 02/M05 A3037 RMK A01 T00181047  RH  062%=      5-min Rain = 0
KFL1 092104Z 20004KT 02/M05 A3037 RMK A01 T00181048  RH  062%=      5-min Rain = 0
KFL1 092105Z 20005KT 02/M05 A3037 RMK A01 T00191046  RH  062%=      5-min Rain = 0
KFL1 092106Z 21005KT 02/M04 A3037 RMK A01 T00201044  RH  062%=      5-min Rain = 0
KFL1 092107Z 21003KT 02/M05 A3037 RMK A01 T00181046  RH  062%=      5-min Rain = 0
KFL1 092108Z 20003KT 02/M05 A3037 RMK A01 T00171046  RH  063%=      5-min Rain = 0
KFL1 092109Z 21004KT 02/M04 A3037 RMK A01 T00191044  RH  063%=      5-min Rain = 0
KFL1 092110Z 21004KT 02/M04 A3037 RMK A01 T00201043  RH  063%=      5-min Rain = 0
KFL1 092111Z 20004KT 02/M04 A3037 RMK A01 T00221042  RH  062%=      5-min Rain = 0
KFL1 092112Z 21004KT 02/M04 A3037 RMK A01 T00211044  RH  062%=      5-min Rain = 0
KFL1 092113Z 22004KT 02/M05 A3037 RMK A01 T00211045  RH  062%=      5-min Rain = 0
KFL1 092114Z 22004KT 02/M04 A3037 RMK A01 T00211044  RH  062%=      5-min Rain = 0
KFL1 092115Z 21005KT 02/M04 A3037 RMK A01 T00211043  RH  063%=      5-min Rain = 0
KFL1 092116Z 22004KT 02/M04 A3037 RMK A01 T00221041  RH  063%=      5-min Rain = 0
KFL1 092117Z 22004KT 02/M04 A3037 RMK A01 T00211042  RH  063%=      5-min Rain = 0
KFL1 092118Z 22004KT 02/M04 A3037 RMK A01 T00191044  RH  063%=      5-min Rain = 0
KFL1 092119Z 23004KT 02/M04 A3037 RMK A01 T00211041  RH  064%=      5-min Rain = 0
KFL1 092120Z 22005KT 02/M04 A3037 RMK A01 T00191040  RH  065%=      5-min Rain = 0
KFL1 092121Z 23005KT 02/M04 A3037 RMK A01 T00191040  RH  065%=      5-min Rain = 0
KFL1 092122Z 21004KT 02/M04 A3037 RMK A01 T00191040  RH  065%=      5-min Rain = 0
KFL1 092123Z 21004KT 02/M04 A3037 RMK A01 T00181040  RH  065%=      5-min Rain = 0
KFL1 092124Z 20004KT 02/M04 A3037 RMK A01 T00191038  RH  066%=      5-min Rain = 0
KFL1 092125Z 19003KT 02/M04 A3037 RMK A01 T00211037  RH  066%=      5-min Rain = 0
KFL1 092126Z 20004KT 02/M04 A3037 RMK A01 T00221036  RH  065%=      5-min Rain = 0
KFL1 092127Z 19005KT 02/M04 A3038 RMK A01 T00221038  RH  064%=      5-min Rain = 0
KFL1 092128Z 19004KT 02/M04 A3037 RMK A01 T00201039  RH  065%=      5-min Rain = 0
KFL1 092129Z 22005KT 02/M04 A3037 RMK A01 T00191039  RH  065%=      5-min Rain = 0
KFL1 092130Z 22003KT 02/M04 A3037 RMK A01 T00201038  RH  065%=      5-min Rain = 0
KFL1 092131Z 23004KT 02/M04 A3037 RMK A01 T00181038  RH  066%=      5-min Rain = 0
KFL1 092132Z 22004KT 02/M04 A3037 RMK A01 T00181037  RH  067%=      5-min Rain = 0
KFL1 092133Z 21005KT 02/M04 A3038 RMK A01 T00171038  RH  067%=      5-min Rain = 0
KFL1 092134Z 22005KT 02/M04 A3038 RMK A01 T00181037  RH  067%=      5-min Rain = 0
KFL1 092135Z 21005KT 02/M04 A3038 RMK A01 T00181037  RH  067%=      5-min Rain = 0
KFL1 092136Z 19005KT 02/M04 A3038 RMK A01 T00171038  RH  067%=      5-min Rain = 0
KFL1 092137Z 20004KT 02/M04 A3037 RMK A01 T00171037  RH  067%=      5-min Rain = 0
KFL1 092138Z 20005KT 02/M04 A3037 RMK A01 T00171038  RH  067%=      5-min Rain = 0
KFL1 092139Z 20004KT 02/M04 A3037 RMK A01 T00181037  RH  067%=      5-min Rain = 0
KFL1 092140Z 20004KT 02/M04 A3037 RMK A01 T00191037  RH  067%=      5-min Rain = 0
KFL1 092141Z 19003KT 02/M04 A3037 RMK A01 T00191038  RH  066%=      5-min Rain = 0
KFL1 092142Z 20003KT 02/M04 A3037 RMK A01 T00201038  RH  066%=      5-min Rain = 0
KFL1 092143Z 21002KT 02/M04 A3037 RMK A01 T00191038  RH  066%=      5-min Rain = 0
KFL1 092144Z 21004KT 02/M04 A3037 RMK A01 T00221035  RH  066%=      5-min Rain = 0
KFL1 092145Z 20005KT 02/M04 A3038 RMK A01 T00201038  RH  065%=      5-min Rain = 0
KFL1 092146Z 19004KT 02/M04 A3037 RMK A01 T00201038  RH  066%=      5-min Rain = 0
KFL1 092147Z 19003KT 02/M04 A3037 RMK A01 T00191038  RH  066%=      5-min Rain = 0
KFL1 092148Z 18003KT 02/M04 A3037 RMK A01 T00211036  RH  066%=      5-min Rain = 0
KFL1 092149Z 21004KT 02/M04 A3037 RMK A01 T00211035  RH  066%=      5-min Rain = 0
KFL1 092150Z 20003KT 02/M04 A3037 RMK A01 T00201036  RH  066%=      5-min Rain = 0
KFL1 092151Z 19003KT 02/M04 A3037 RMK A01 T00221036  RH  066%=      5-min Rain = 0
KFL1 092152Z 19004KT 02/M04 A3037 RMK A01 T00191038  RH  066%=      5-min Rain = 0
KFL1 092153Z 19004KT 02/M04 A3037 RMK A01 T00201038  RH  066%=      5-min Rain = 0
KFL1 092154Z 19002KT 02/M04 A3037 RMK A01 T00211037  RH  066%=      5-min Rain = 0
KFL1 092155Z 19003KT 02/M04 A3037 RMK A01 T00201037  RH  066%=      5-min Rain = 0
KFL1 092156Z 20003KT 02/M04 A3037 RMK A01 T00201037  RH  066%=      5-min Rain = 0
KFL1 092157Z 19003KT 02/M04 A3037 RMK A01 T00201036  RH  066%=      5-min Rain = 0
KFL1 092158Z 21004KT 02/M04 A3038 RMK A01 T00211036  RH  066%=      5-min Rain = 0
KFL1 092159Z 22004KT 02/M04 A3038 RMK A01 T00211036  RH  066%=      5-min Rain = 0
KFL1 092200Z 21004KT 02/M04 A3037 RMK A01 T00201036  RH  066%=      5-min Rain = 0
KFL1 092201Z 21003KT 02/M03 A3037 RMK A01 T00211034  RH  067%=      5-min Rain = 0
KFL1 092202Z 21004KT 02/M04 A3037 RMK A01 T00201035  RH  067%=      5-min Rain = 0
KFL1 092203Z 21004KT 02/M04 A3037 RMK A01 T00201035  RH  067%=      5-min Rain = 0
KFL1 092204Z 21005KT 02/M04 A3037 RMK A01 T00191036  RH  067%=      5-min Rain = 0
KFL1 092205Z 21004KT 02/M04 A3037 RMK A01 T00191036  RH  067%=      5-min Rain = 0
KFL1 092206Z 20003KT 02/M04 A3037 RMK A01 T00191035  RH  067%=      5-min Rain = 0
KFL1 092207Z 21005KT 02/M04 A3038 RMK A01 T00191036  RH  067%=      5-min Rain = 0
KFL1 092208Z 19004KT 02/M04 A3038 RMK A01 T00191036  RH  067%=      5-min Rain = 0
KFL1 092209Z 20004KT 02/M04 A3038 RMK A01 T00171037  RH  067%=      5-min Rain = 0
KFL1 092210Z 21003KT 02/M04 A3038 RMK A01 T00181035  RH  068%=      5-min Rain = 0
KFL1 092211Z 21004KT 02/M04 A3038 RMK A01 T00181035  RH  068%=      5-min Rain = 0
KFL1 092212Z 20003KT 02/M04 A3038 RMK A01 T00171037  RH  068%=      5-min Rain = 0
KFL1 092213Z 22003KT 02/M04 A3038 RMK A01 T00171036  RH  068%=      5-min Rain = 0
KFL1 092214Z 22003KT 02/M04 A3037 RMK A01 T00161037  RH  068%=      5-min Rain = 0
KFL1 092215Z 22004KT 02/M04 A3037 RMK A01 T00161037  RH  068%=      5-min Rain = 0
KFL1 092216Z 22003KT 01/M04 A3037 RMK A01 T00141038  RH  068%=      5-min Rain = 0
KFL1 092217Z 22004KT 01/M04 A3037 RMK A01 T00131039  RH  069%=      5-min Rain = 0
KFL1 092218Z 21004KT 01/M04 A3037 RMK A01 T00131038  RH  069%=      5-min Rain = 0
KFL1 092219Z 22004KT 01/M04 A3037 RMK A01 T00121039  RH  069%=      5-min Rain = 0
KFL1 092220Z 22004KT 01/M04 A3037 RMK A01 T00111040  RH  069%=      5-min Rain = 0
KFL1 092221Z 23005KT 01/M04 A3037 RMK A01 T00091041  RH  069%=      5-min Rain = 0
KFL1 092222Z 22005KT 01/M04 A3037 RMK A01 T00081041  RH  070%=      5-min Rain = 0
KFL1 092223Z 22004KT 01/M04 A3037 RMK A01 T00051042  RH  071%=      5-min Rain = 0
KFL1 092224Z 22004KT 00/M04 A3037 RMK A01 T00041041  RH  072%=      5-min Rain = 0
KFL1 092225Z 23004KT 00/M04 A3037 RMK A01 T00041039  RH  073%=      5-min Rain = 0
KFL1 092226Z 22003KT 00/M04 A3037 RMK A01 T00041038  RH  073%=      5-min Rain = 0
KFL1 092227Z 22002KT 01/M04 A3037 RMK A01 T00051037  RH  073%=      5-min Rain = 0
KFL1 092228Z 22004KT 01/M04 A3037 RMK A01 T00071037  RH  072%=      5-min Rain = 0
KFL1 092229Z 22002KT 01/M04 A3037 RMK A01 T00091036  RH  072%=      5-min Rain = 0
KFL1 092230Z 22002KT 01/M04 A3037 RMK A01 T00081038  RH  072%=      5-min Rain = 0
KFL1 092231Z 21003KT 01/M04 A3037 RMK A01 T00091037  RH  071%=      5-min Rain = 0
KFL1 092232Z 19003KT 01/M04 A3037 RMK A01 T00091038  RH  071%=      5-min Rain = 0
KFL1 092233Z 20004KT 01/M04 A3037 RMK A01 T00101036  RH  071%=      5-min Rain = 0
KFL1 092234Z 21004KT 01/M04 A3037 RMK A01 T00101038  RH  071%=      5-min Rain = 0
KFL1 092235Z 22003KT 01/M04 A3037 RMK A01 T00101038  RH  070%=      5-min Rain = 0
KFL1 092236Z 21004KT 01/M04 A3037 RMK A01 T00111038  RH  070%=      5-min Rain = 0
KFL1 092237Z 20003KT 01/M04 A3037 RMK A01 T00111038  RH  070%=      5-min Rain = 0
KFL1 092238Z 18004KT 01/M04 A3037 RMK A01 T00111037  RH  070%=      5-min Rain = 0
KFL1 092239Z 18003KT 01/M04 A3037 RMK A01 T00101037  RH  071%=      5-min Rain = 0
KFL1 092240Z 17003KT 01/M04 A3037 RMK A01 T00101037  RH  071%=      5-min Rain = 0
KFL1 092241Z 17004KT 01/M04 A3037 RMK A01 T00101038  RH  070%=      5-min Rain = 0
KFL1 092242Z 19004KT 01/M04 A3037 RMK A01 T00091038  RH  071%=      5-min Rain = 0
KFL1 092243Z 19004KT 01/M04 A3037 RMK A01 T00091037  RH  071%=      5-min Rain = 0
KFL1 092244Z 19004KT 01/M04 A3037 RMK A01 T00091037  RH  071%=      5-min Rain = 0
KFL1 092245Z 19003KT 01/M04 A3037 RMK A01 T00101037  RH  071%=      5-min Rain = 0
KFL1 092246Z 18002KT 01/M04 A3037 RMK A01 T00101037  RH  071%=      5-min Rain = 0
KFL1 092247Z 18001KT 01/M04 A3037 RMK A01 T00111037  RH  070%=      5-min Rain = 0
KFL1 092248Z 20002KT 01/M04 A3037 RMK A01 T00121037  RH  070%=      5-min Rain = 0
KFL1 092249Z 20003KT 01/M04 A3037 RMK A01 T00131037  RH  070%=      5-min Rain = 0
KFL1 092250Z 21004KT 01/M04 A3037 RMK A01 T00131037  RH  069%=      5-min Rain = 0
KFL1 092251Z 20005KT 01/M04 A3037 RMK A01 T00121038  RH  069%=      5-min Rain = 0
KFL1 092252Z 20004KT 01/M04 A3038 RMK A01 T00141037  RH  069%=      5-min Rain = 0
KFL1 092253Z 21004KT 01/M04 A3038 RMK A01 T00141037  RH  069%=      5-min Rain = 0
KFL1 092254Z 21004KT 01/M04 A3038 RMK A01 T00131037  RH  069%=      5-min Rain = 0
KFL1 092255Z 21004KT 01/M04 A3038 RMK A01 T00121039  RH  069%=      5-min Rain = 0
KFL1 092256Z 21005KT 01/M04 A3038 RMK A01 T00111041  RH  068%=      5-min Rain = 0
KFL1 092257Z 21004KT 01/M04 A3038 RMK A01 T00111041  RH  068%=      5-min Rain = 0
KFL1 092258Z 21005KT 01/M04 A3038 RMK A01 T00091042  RH  069%=      5-min Rain = 0
KFL1 092259Z 22005KT 01/M04 A3038 RMK A01 T00091042  RH  069%=      5-min Rain = 0
KFL1 092300Z 21006KT 01/M04 A3038 RMK A01 T00071043  RH  069%=      5-min Rain = 0
KFL1 092301Z 21005KT 01/M04 A3038 RMK A01 T00051044  RH  070%=      5-min Rain = 0
KFL1 092302Z 21006KT 00/M04 A3038 RMK A01 T00041044  RH  070%=      5-min Rain = 0
KFL1 092303Z 21006KT 00/M04 A3038 RMK A01 T00041042  RH  071%=      5-min Rain = 0
KFL1 092304Z 21006KT 01/M04 A3038 RMK A01 T00061039  RH  072%=      5-min Rain = 0
KFL1 092305Z 20005KT 00/M04 A3038 RMK A01 T00041042  RH  071%=      5-min Rain = 0
KFL1 092306Z 20004KT 00/M04 A3038 RMK A01 T00031043  RH  071%=      5-min Rain = 0
KFL1 092307Z 21004KT 00/M04 A3038 RMK A01 T00031042  RH  072%=      5-min Rain = 0
KFL1 092308Z 21004KT 00/M04 A3038 RMK A01 T00041041  RH  072%=      5-min Rain = 0
KFL1 092309Z 22004KT 01/M04 A3038 RMK A01 T00051040  RH  072%=      5-min Rain = 0
KFL1 092310Z 22004KT 00/M04 A3038 RMK A01 T00041042  RH  071%=      5-min Rain = 0
KFL1 092311Z 22005KT 00/M05 A3038 RMK A01 T00021045  RH  071%=      5-min Rain = 0
KFL1 092312Z 22004KT 00/M05 A3038 RMK A01 T00011046  RH  071%=      5-min Rain = 0
KFL1 092313Z 22004KT M00/M05 A3038 RMK A01 T10011048  RH  071%=      5-min Rain = 0
KFL1 092314Z 23005KT M00/M05 A3038 RMK A01 T10031047  RH  072%=      5-min Rain = 0
KFL1 092315Z 23005KT M01/M05 A3038 RMK A01 T10051047  RH  073%=      5-min Rain = 0
KFL1 092316Z 24005KT M01/M05 A3038 RMK A01 T10061047  RH  074%=      5-min Rain = 0
KFL1 092317Z 24005KT M01/M05 A3038 RMK A01 T10071047  RH  074%=      5-min Rain = 0
KFL1 092318Z 23005KT M01/M05 A3038 RMK A01 T10081047  RH  075%=      5-min Rain = 0
KFL1 092319Z 22004KT M01/M05 A3038 RMK A01 T10081046  RH  076%=      5-min Rain = 0
KFL1 092320Z 22004KT M01/M05 A3038 RMK A01 T10091047  RH  075%=      5-min Rain = 0
KFL1 092321Z 22005KT M01/M05 A3038 RMK A01 T10081047  RH  075%=      5-min Rain = 0
KFL1 092322Z 21005KT M01/M05 A3038 RMK A01 T10081046  RH  075%=      5-min Rain = 0
KFL1 092323Z 21004KT M01/M05 A3038 RMK A01 T10081046  RH  076%=      5-min Rain = 0
KFL1 092324Z 20004KT M01/M04 A3038 RMK A01 T10051043  RH  076%=      5-min Rain = 0
KFL1 092325Z 20004KT M01/M04 A3038 RMK A01 T10061044  RH  075%=      5-min Rain = 0
KFL1 092326Z 20004KT M01/M04 A3038 RMK A01 T10061044  RH  075%=      5-min Rain = 0
KFL1 092327Z 20005KT M01/M04 A3038 RMK A01 T10061044  RH  075%=      5-min Rain = 0
KFL1 092328Z 20005KT M01/M04 A3038 RMK A01 T10061044  RH  075%=      5-min Rain = 0
KFL1 092329Z 20004KT M01/M05 A3038 RMK A01 T10071045  RH  075%=      5-min Rain = 0
KFL1 092330Z 20004KT M01/M04 A3038 RMK A01 T10061044  RH  076%=      5-min Rain = 0
KFL1 092331Z 21003KT M01/M05 A3039 RMK A01 T10071045  RH  076%=      5-min Rain = 0
KFL1 092332Z 21005KT M01/M05 A3039 RMK A01 T10081045  RH  076%=      5-min Rain = 0
KFL1 092333Z 21005KT M01/M05 A3039 RMK A01 T10101048  RH  075%=      5-min Rain = 0
KFL1 092334Z 21005KT M01/M05 A3038 RMK A01 T10111050  RH  075%=      5-min Rain = 0
KFL1 092335Z 21005KT M01/M05 A3038 RMK A01 T10121051  RH  075%=      5-min Rain = 0
KFL1 092336Z 22005KT M02/M05 A3038 RMK A01 T10151052  RH  076%=      5-min Rain = 0
KFL1 092337Z 22004KT M02/M05 A3038 RMK A01 T10151049  RH  077%=      5-min Rain = 0
KFL1 092338Z 23004KT M01/M05 A3038 RMK A01 T10141048  RH  078%=      5-min Rain = 0
KFL1 092339Z 23004KT M02/M05 A3038 RMK A01 T10161050  RH  078%=      5-min Rain = 0
KFL1 092340Z 22004KT M02/M05 A3038 RMK A01 T10181051  RH  078%=      5-min Rain = 0
KFL1 092341Z 22004KT M02/M05 A3038 RMK A01 T10191051  RH  079%=      5-min Rain = 0
KFL1 092342Z 22004KT M02/M05 A3038 RMK A01 T10211052  RH  079%=      5-min Rain = 0
KFL1 092343Z 22004KT M02/M05 A3038 RMK A01 T10221052  RH  080%=      5-min Rain = 0
KFL1 092344Z 22003KT M02/M05 A3038 RMK A01 T10231054  RH  080%=      5-min Rain = 0
KFL1 092345Z 23004KT M03/M06 A3038 RMK A01 T10261055  RH  080%=      5-min Rain = 0
KFL1 092346Z 23004KT M03/M06 A3038 RMK A01 T10281057  RH  080%=      5-min Rain = 0
KFL1 092347Z 23004KT M03/M06 A3038 RMK A01 T10301058  RH  081%=      5-min Rain = 0
KFL1 092348Z 22004KT M03/M06 A3038 RMK A01 T10301055  RH  083%=      5-min Rain = 0
KFL1 092349Z 22004KT M03/M05 A3038 RMK A01 T10291051  RH  085%=      5-min Rain = 0
KFL1 092350Z 22004KT M03/M05 A3038 RMK A01 T10291051  RH  085%=      5-min Rain = 0
KFL1 092351Z 22003KT M03/M05 A3038 RMK A01 T10291051  RH  085%=      5-min Rain = 0
KFL1 092352Z 22003KT M03/M05 A3038 RMK A01 T10291052  RH  085%=      5-min Rain = 0
KFL1 092353Z 22003KT M03/M05 A3038 RMK A01 T10301051  RH  085%=      5-min Rain = 0
KFL1 092354Z 23002KT M03/M05 A3038 RMK A01 T10291049  RH  086%=      5-min Rain = 0
KFL1 092355Z 24002KT M03/M05 A3038 RMK A01 T10291050  RH  086%=      5-min Rain = 0
KFL1 092356Z 25002KT M03/M05 A3038 RMK A01 T10311051  RH  086%=      5-min Rain = 0
KFL1 092357Z 27002KT M03/M05 A3038 RMK A01 T10281048  RH  086%=      5-min Rain = 0
KFL1 092358Z 27002KT M03/M05 A3038 RMK A01 T10301050  RH  087%=      5-min Rain = 0
KFL1 092359Z 27002KT M03/M05 A3038 RMK A01 T10321052  RH  086%=      5-min Rain = 0
KFL1 100000Z 28002KT M03/M05 A3038 RMK A01 T10341053  RH  087%=      5-min Rain = 0
KFL1 100001Z 27002KT M04/M05 A3038 RMK A01 T10351053  RH  087%=      5-min Rain = 0
KFL1 100002Z 27002KT M04/M05 A3039 RMK A01 T10361054  RH  087%=      5-min Rain = 0
KFL1 100003Z 28002KT M04/M06 A3038 RMK A01 T10371055  RH  088%=      5-min Rain = 0
KFL1 100004Z 28003KT M04/M06 A3038 RMK A01 T10381056  RH  087%=      5-min Rain = 0
KFL1 100005Z 28002KT M04/M07 A3038 RMK A01 T10431065  RH  084%=      5-min Rain = 0
KFL1 100006Z 28002KT M05/M07 A3038 RMK A01 T10461066  RH  086%=      5-min Rain = 0
KFL1 100007Z 28002KT M05/M06 A3038 RMK A01 T10461062  RH  089%=      5-min Rain = 0
KFL1 100008Z 28002KT M05/M06 A3038 RMK A01 T10481063  RH  089%=      5-min Rain = 0
KFL1 100009Z 29003KT M05/M07 A3038 RMK A01 T10521071  RH  087%=      5-min Rain = 0
KFL1 100010Z 30003KT M06/M08 A3038 RMK A01 T10561076  RH  086%=      5-min Rain = 0
KFL1 100011Z 30003KT M06/M07 A3038 RMK A01 T10571071  RH  090%=      5-min Rain = 0
KFL1 100012Z 29003KT M06/M07 A3038 RMK A01 T10551065  RH  093%=      5-min Rain = 0
KFL1 100013Z 29003KT M05/M06 A3038 RMK A01 T10541061  RH  095%=      5-min Rain = 0
KFL1 100014Z 30003KT M05/M06 A3038 RMK A01 T10511057  RH  095%=      5-min Rain = 0
KFL1 100015Z 31003KT M05/M06 A3038 RMK A01 T10501057  RH  095%=      5-min Rain = 0
KFL1 100016Z 31003KT M05/M06 A3038 RMK A01 T10511058  RH  095%=      5-min Rain = 0
KFL1 100017Z 32003KT M05/M06 A3038 RMK A01 T10521059  RH  095%=      5-min Rain = 0
KFL1 100018Z 33003KT M05/M06 A3038 RMK A01 T10521061  RH  094%=      5-min Rain = 0
KFL1 100019Z 33004KT M05/M06 A3038 RMK A01 T10511058  RH  094%=      5-min Rain = 0
KFL1 100020Z 33004KT M05/M06 A3039 RMK A01 T10491056  RH  095%=      5-min Rain = 0
KFL1 100021Z 32003KT M05/M06 A3038 RMK A01 T10491057  RH  094%=      5-min Rain = 0
KFL1 100022Z 31002KT M05/M06 A3038 RMK A01 T10511062  RH  092%=      5-min Rain = 0
KFL1 100023Z 31002KT M05/M06 A3039 RMK A01 T10501059  RH  094%=      5-min Rain = 0
KFL1 100024Z 32003KT M05/M05 A3039 RMK A01 T10471053  RH  096%=      5-min Rain = 0
KFL1 100025Z 33003KT M05/M06 A3039 RMK A01 T10521063  RH  092%=      5-min Rain = 0
KFL1 100026Z 32004KT M06/M07 A3039 RMK A01 T10591073  RH  089%=      5-min Rain = 0
KFL1 100027Z 30003KT M06/M08 A3039 RMK A01 T10631079  RH  089%=      5-min Rain = 0
KFL1 100028Z 28003KT M07/M08 A3039 RMK A01 T10651079  RH  090%=      5-min Rain = 0
KFL1 100029Z 28003KT M06/M07 A3039 RMK A01 T10611070  RH  094%=      5-min Rain = 0
KFL1 100030Z 29003KT M06/M07 A3039 RMK A01 T10601066  RH  096%=      5-min Rain = 0
KFL1 100031Z 29003KT M06/M07 A3039 RMK A01 T10631069  RH  095%=      5-min Rain = 0
KFL1 100032Z 29003KT M07/M08 A3039 RMK A01 T10711083  RH  091%=      5-min Rain = 0
KFL1 100033Z 29004KT M08/M09 A3039 RMK A01 T10771090  RH  090%=      5-min Rain = 0
KFL1 100034Z 29004KT M07/M08 A3039 RMK A01 T10741084  RH  093%=      5-min Rain = 0
KFL1 100035Z 29004KT M07/M07 A3039 RMK A01 T10671073  RH  096%=      5-min Rain = 0
KFL1 100036Z 29004KT M07/M07 A3039 RMK A01 T10671071  RH  097%=      5-min Rain = 0
KFL1 100037Z 29004KT M07/M08 A3039 RMK A01 T10701075  RH  096%=      5-min Rain = 0
KFL1 100038Z 29004KT M07/M07 A3039 RMK A01 T10681072  RH  097%=      5-min Rain = 0
KFL1 100039Z 29004KT M06/M07 A3039 RMK A01 T10641068  RH  097%=      5-min Rain = 0
KFL1 100040Z 31004KT M06/M07 A3039 RMK A01 T10621065  RH  098%=      5-min Rain = 0
KFL1 100041Z 30004KT M06/M06 A3039 RMK A01 T10611064  RH  098%=      5-min Rain = 0
KFL1 100042Z 29004KT M06/M07 A3039 RMK A01 T10631068  RH  097%=      5-min Rain = 0
KFL1 100043Z 28003KT M06/M07 A3039 RMK A01 T10641069  RH  096%=      5-min Rain = 0
KFL1 100044Z 28003KT M07/M07 A3039 RMK A01 T10651071  RH  096%=      5-min Rain = 0
KFL1 100045Z 29003KT M06/M07 A3039 RMK A01 T10641070  RH  096%=      5-min Rain = 0
KFL1 100046Z 30002KT M06/M07 A3039 RMK A01 T10621067  RH  096%=      5-min Rain = 0
KFL1 100047Z 30002KT M06/M06 A3039 RMK A01 T10571061  RH  097%=      5-min Rain = 0
KFL1 100048Z 31002KT M05/M06 A304 RMK A01 T10531055  RH  098%=      5-min Rain = 0
KFL1 100049Z 30002KT M05/M06 A304 RMK A01 T10521055  RH  098%=      5-min Rain = 0
KFL1 100050Z 30002KT M05/M06 A304 RMK A01 T10531057  RH  097%=      5-min Rain = 0
KFL1 100051Z 29002KT M05/M06 A304 RMK A01 T10541058  RH  097%=      5-min Rain = 0
KFL1 100052Z 28001KT M05/M06 A304 RMK A01 T10511055  RH  097%=      5-min Rain = 0
KFL1 100053Z 30001KT M05/M06 A304 RMK A01 T10521057  RH  096%=      5-min Rain = 0
KFL1 100054Z 10000KT M06/M06 A304 RMK A01 T10551063  RH  095%=      5-min Rain = 0
KFL1 100055Z 12002KT M06/M06 A304 RMK A01 T10561064  RH  094%=      5-min Rain = 0
KFL1 100056Z 10002KT M06/M07 A304 RMK A01 T10581067  RH  093%=      5-min Rain = 0
KFL1 100057Z 10001KT M06/M07 A304 RMK A01 T10591069  RH  093%=      5-min Rain = 0
KFL1 100058Z 11001KT M06/M07 A304 RMK A01 T10581066  RH  094%=      5-min Rain = 0
KFL1 100059Z 09001KT M06/M06 A304 RMK A01 T10561063  RH  095%=      5-min Rain = 0
KFL1 100100Z 07001KT M06/M06 A304 RMK A01 T10571064  RH  095%=      5-min Rain = 0
KFL1 100101Z 07001KT M05/M06 A304 RMK A01 T10541060  RH  096%=      5-min Rain = 0
KFL1 100102Z 05000KT M05/M06 A304 RMK A01 T10531058  RH  096%=      5-min Rain = 0
KFL1 100103Z 07000KT M05/M05 A304 RMK A01 T10501054  RH  097%=      5-min Rain = 0
KFL1 100104Z 08000KT M05/M05 A304 RMK A01 T10481052  RH  097%=      5-min Rain = 0
KFL1 100105Z 00000KT M05/M05 A304 RMK A01 T10481052  RH  097%=      5-min Rain = 0
KFL1 100106Z 06001KT M05/M05 A304 RMK A01 T10471051  RH  097%=      5-min Rain = 0
KFL1 100107Z 06001KT M05/M06 A304 RMK A01 T10501056  RH  095%=      5-min Rain = 0
KFL1 100108Z 05001KT M05/M06 A304 RMK A01 T10531061  RH  095%=      5-min Rain = 0
KFL1 100109Z 04001KT M05/M06 A304 RMK A01 T10521058  RH  096%=      5-min Rain = 0
KFL1 100110Z 04001KT M05/M05 A304 RMK A01 T10491054  RH  096%=      5-min Rain = 0
KFL1 100111Z 05001KT M05/M05 A304 RMK A01 T10491054  RH  097%=      5-min Rain = 0
KFL1 100112Z 05001KT M05/M05 A304 RMK A01 T10471051  RH  097%=      5-min Rain = 0
KFL1 100113Z 04001KT M05/M06 A304 RMK A01 T10501055  RH  096%=      5-min Rain = 0
KFL1 100114Z 04001KT M06/M07 A304 RMK A01 T10561065  RH  093%=      5-min Rain = 0
KFL1 100115Z 06001KT M06/M07 A304 RMK A01 T10581067  RH  093%=      5-min Rain = 0
KFL1 100116Z 06001KT M06/M07 A304 RMK A01 T10601068  RH  094%=      5-min Rain = 0
KFL1 100117Z 05002KT M06/M07 A304 RMK A01 T10621069  RH  094%=      5-min Rain = 0
KFL1 100118Z 05002KT M06/M07 A304 RMK A01 T10641072  RH  094%=      5-min Rain = 0
KFL1 100119Z 05003KT M06/M06 A304 RMK A01 T10591064  RH  096%=      5-min Rain = 0
KFL1 100120Z 04002KT M05/M06 A304 RMK A01 T10541057  RH  098%=      5-min Rain = 0
KFL1 100121Z 03001KT M05/M05 A304 RMK A01 T10501052  RH  098%=      5-min Rain = 0
KFL1 100122Z 02001KT M06/M06 A304 RMK A01 T10571062  RH  097%=      5-min Rain = 0
KFL1 100123Z 03001KT M08/M09 A304 RMK A01 T10771093  RH  088%=      5-min Rain = 0
KFL1 100124Z 05002KT M08/M10 A304 RMK A01 T10821097  RH  089%=      5-min Rain = 0
KFL1 100125Z 05002KT M08/M09 A304 RMK A01 T10821092  RH  092%=      5-min Rain = 0
KFL1 100126Z 05002KT M08/M08 A304 RMK A01 T10751081  RH  095%=      5-min Rain = 0
KFL1 100127Z 04002KT M06/M07 A304 RMK A01 T10631065  RH  098%=      5-min Rain = 0
KFL1 100128Z 03002KT M07/M07 A304 RMK A01 T10681071  RH  098%=      5-min Rain = 0
KFL1 100129Z 03003KT M08/M08 A304 RMK A01 T10791084  RH  096%=      5-min Rain = 0
KFL1 100130Z 04004KT M08/M09 A304 RMK A01 T10811087  RH  096%=      5-min Rain = 0
KFL1 100131Z 04005KT M08/M09 A304 RMK A01 T10841090  RH  095%=      5-min Rain = 0
KFL1 100132Z 04004KT M08/M09 A304 RMK A01 T10821088  RH  095%=      5-min Rain = 0
KFL1 100133Z 04004KT M08/M09 A304 RMK A01 T10821089  RH  095%=      5-min Rain = 0
KFL1 100134Z 04004KT M08/M09 A304 RMK A01 T10831091  RH  094%=      5-min Rain = 0
KFL1 100135Z 03003KT M08/M09 A304 RMK A01 T10831091  RH  094%=      5-min Rain = 0
KFL1 100136Z 03003KT M09/M10 A304 RMK A01 T10861095  RH  093%=      5-min Rain = 0
KFL1 100137Z 04004KT M09/M10 A304 RMK A01 T10891099  RH  093%=      5-min Rain = 0
KFL1 100138Z 04005KT M09/M10 A304 RMK A01 T10881097  RH  093%=      5-min Rain = 0
KFL1 100139Z 04006KT M08/M09 A304 RMK A01 T10811087  RH  095%=      5-min Rain = 0
KFL1 100140Z 04006KT M07/M08 A304 RMK A01 T10731077  RH  097%=      5-min Rain = 0
KFL1 100141Z 04005KT M07/M07 A304 RMK A01 T10661068  RH  098%=      5-min Rain = 0
KFL1 100142Z 03005KT M06/M06 A3039 RMK A01 T10591062  RH  098%=      5-min Rain = 0
KFL1 100143Z 04005KT M06/M07 A304 RMK A01 T10601066  RH  096%=      5-min Rain = 0
KFL1 100144Z 05005KT M07/M08 A304 RMK A01 T10691081  RH  091%=      5-min Rain = 0
KFL1 100145Z 04006KT M07/M08 A304 RMK A01 T10691080  RH  092%=      5-min Rain = 0
KFL1 100146Z 04006KT M07/M07 A304 RMK A01 T10651074  RH  093%=      5-min Rain = 0
KFL1 100147Z 05006KT M06/M07 A304 RMK A01 T10621071  RH  093%=      5-min Rain = 0
KFL1 100148Z 04007KT M06/M07 A304 RMK A01 T10621072  RH  092%=      5-min Rain = 0
KFL1 100149Z 03007KT M06/M07 A304 RMK A01 T10621074  RH  092%=      5-min Rain = 0
KFL1 100150Z 03007KT M06/M07 A3039 RMK A01 T10591070  RH  092%=      5-min Rain = 0
KFL1 100151Z 03006KT M05/M07 A3039 RMK A01 T10541065  RH  092%=      5-min Rain = 0
KFL1 100152Z 04006KT M05/M06 A304 RMK A01 T10521064  RH  091%=      5-min Rain = 0
KFL1 100153Z 04006KT M05/M07 A304 RMK A01 T10501065  RH  089%=      5-min Rain = 0
KFL1 100154Z 04006KT M05/M07 A304 RMK A01 T10491065  RH  088%=      5-min Rain = 0
KFL1 100155Z 04006KT M05/M07 A304 RMK A01 T10481066  RH  087%=      5-min Rain = 0
KFL1 100156Z 04006KT M05/M06 A304 RMK A01 T10451064  RH  087%=      5-min Rain = 0
KFL1 100157Z 04006KT M05/M07 A304 RMK A01 T10461066  RH  086%=      5-min Rain = 0
KFL1 100158Z 04006KT M05/M07 A304 RMK A01 T10451067  RH  085%=      5-min Rain = 0
KFL1 100159Z 04006KT M05/M07 A304 RMK A01 T10461068  RH  085%=      5-min Rain = 0
KFL1 100200Z 04006KT M05/M07 A304 RMK A01 T10471070  RH  084%=      5-min Rain = 0
KFL1 100201Z 03006KT M05/M07 A304 RMK A01 T10481071  RH  084%=      5-min Rain = 0
KFL1 100202Z 03006KT M05/M07 A304 RMK A01 T10511074  RH  083%=      5-min Rain = 0
KFL1 100203Z 03007KT M05/M07 A304 RMK A01 T10511074  RH  084%=      5-min Rain = 0
KFL1 100204Z 03007KT M05/M07 A304 RMK A01 T10511074  RH  084%=      5-min Rain = 0
KFL1 100205Z 03006KT M05/M07 A304 RMK A01 T10511072  RH  085%=      5-min Rain = 0
KFL1 100206Z 04007KT M05/M07 A304 RMK A01 T10501071  RH  085%=      5-min Rain = 0
KFL1 100207Z 03006KT M05/M07 A304 RMK A01 T10501071  RH  085%=      5-min Rain = 0
KFL1 100208Z 03007KT M05/M07 A304 RMK A01 T10501071  RH  085%=      5-min Rain = 0
KFL1 100209Z 03007KT M05/M07 A304 RMK A01 T10491072  RH  084%=      5-min Rain = 0
KFL1 100210Z 03006KT M05/M07 A304 RMK A01 T10481071  RH  084%=      5-min Rain = 0
KFL1 100211Z 03005KT M05/M08 A304 RMK A01 T10521081  RH  081%=      5-min Rain = 0
KFL1 100212Z 03005KT M06/M10 A304 RMK A01 T10631098  RH  076%=      5-min Rain = 0
KFL1 100213Z 03006KT M07/M11 A304 RMK A01 T10741109  RH  076%=      5-min Rain = 0
KFL1 100214Z 03006KT M08/M11 A304 RMK A01 T10781108  RH  079%=      5-min Rain = 0
KFL1 100215Z 03005KT M08/M11 A304 RMK A01 T10821107  RH  082%=      5-min Rain = 0
KFL1 100216Z 03005KT M09/M11 A304 RMK A01 T10861108  RH  084%=      5-min Rain = 0
KFL1 100217Z 04005KT M09/M11 A304 RMK A01 T10871108  RH  085%=      5-min Rain = 0
KFL1 100218Z 03006KT M09/M11 A304 RMK A01 T10891108  RH  086%=      5-min Rain = 0
KFL1 100219Z 03006KT M09/M11 A304 RMK A01 T10911109  RH  087%=      5-min Rain = 0
KFL1 100220Z 04005KT M09/M11 A304 RMK A01 T10921109  RH  088%=      5-min Rain = 0
KFL1 100221Z 04005KT M09/M11 A304 RMK A01 T10901105  RH  089%=      5-min Rain = 0
KFL1 100222Z 04006KT M08/M09 A304 RMK A01 T10821092  RH  093%=      5-min Rain = 0
KFL1 100223Z 04006KT M08/M08 A304 RMK A01 T10751082  RH  095%=      5-min Rain = 0
KFL1 100224Z 05006KT M07/M08 A304 RMK A01 T10701076  RH  095%=      5-min Rain = 0
KFL1 100225Z 05006KT M06/M07 A304 RMK A01 T10641072  RH  094%=      5-min Rain = 0
KFL1 100226Z 05006KT M06/M07 A304 RMK A01 T10621072  RH  093%=      5-min Rain = 0
KFL1 100227Z 05006KT M06/M07 A304 RMK A01 T10601072  RH  091%=      5-min Rain = 0
KFL1 100228Z 04006KT M06/M07 A304 RMK A01 T10571070  RH  091%=      5-min Rain = 0
KFL1 100229Z 05005KT M06/M07 A304 RMK A01 T10551069  RH  090%=      5-min Rain = 0
KFL1 100230Z 04005KT M05/M07 A304 RMK A01 T10541069  RH  089%=      5-min Rain = 0
KFL1 100231Z 04005KT M05/M07 A304 RMK A01 T10531069  RH  089%=      5-min Rain = 0
KFL1 100232Z 04005KT M05/M07 A304 RMK A01 T10531069  RH  089%=      5-min Rain = 0
KFL1 100233Z 04005KT M05/M07 A304 RMK A01 T10511067  RH  089%=      5-min Rain = 0
KFL1 100234Z 04004KT M05/M07 A304 RMK A01 T10531069  RH  089%=      5-min Rain = 0
KFL1 100235Z 04004KT M06/M08 A304 RMK A01 T10551076  RH  085%=      5-min Rain = 0
KFL1 100236Z 03004KT M06/M09 A304 RMK A01 T10621088  RH  082%=      5-min Rain = 0
KFL1 100237Z 03004KT M07/M09 A304 RMK A01 T10661091  RH  082%=      5-min Rain = 0
KFL1 100238Z 04004KT M07/M09 A304 RMK A01 T10701093  RH  084%=      5-min Rain = 0
KFL1 100239Z 04004KT M07/M09 A3041 RMK A01 T10711090  RH  086%=      5-min Rain = 0
KFL1 100240Z 03004KT M07/M08 A3041 RMK A01 T10691084  RH  089%=      5-min Rain = 0
KFL1 100241Z 04004KT M07/M08 A3041 RMK A01 T10671079  RH  092%=      5-min Rain = 0
KFL1 100242Z 05004KT M07/M08 A3041 RMK A01 T10661077  RH  092%=      5-min Rain = 0
KFL1 100243Z 05004KT M07/M08 A3041 RMK A01 T10661078  RH  091%=      5-min Rain = 0
KFL1 100244Z 03004KT M07/M08 A3041 RMK A01 T10671084  RH  088%=      5-min Rain = 0
KFL1 100245Z 03005KT M07/M09 A3041 RMK A01 T10731093  RH  086%=      5-min Rain = 0
KFL1 100246Z 04005KT M08/M09 A3041 RMK A01 T10751094  RH  086%=      5-min Rain = 0
KFL1 100247Z 04005KT M07/M09 A304 RMK A01 T10721086  RH  090%=      5-min Rain = 0
KFL1 100248Z 03006KT M07/M08 A304 RMK A01 T10701081  RH  091%=      5-min Rain = 0
KFL1 100249Z 03006KT M07/M09 A304 RMK A01 T10721088  RH  088%=      5-min Rain = 0
KFL1 100250Z 03005KT M08/M10 A304 RMK A01 T10761096  RH  085%=      5-min Rain = 0
KFL1 100251Z 03006KT M08/M10 A3041 RMK A01 T10791100  RH  085%=      5-min Rain = 0
KFL1 100252Z 03006KT M08/M10 A3041 RMK A01 T10811102  RH  085%=      5-min Rain = 0
KFL1 100253Z 03007KT M08/M10 A3041 RMK A01 T10811102  RH  085%=      5-min Rain = 0
KFL1 100254Z 03007KT M08/M10 A3041 RMK A01 T10831103  RH  086%=      5-min Rain = 0
KFL1 100255Z 03007KT M08/M10 A3041 RMK A01 T10821099  RH  087%=      5-min Rain = 0
KFL1 100256Z 04006KT M08/M09 A3041 RMK A01 T10791093  RH  090%=      5-min Rain = 0
KFL1 100257Z 04006KT M07/M08 A3041 RMK A01 T10711082  RH  092%=      5-min Rain = 0
KFL1 100258Z 04006KT M07/M08 A3041 RMK A01 T10671077  RH  093%=      5-min Rain = 0
KFL1 100259Z 04006KT M06/M08 A3041 RMK A01 T10641075  RH  092%=      5-min Rain = 0
KFL1 100300Z 04006KT M06/M07 A3041 RMK A01 T10611072  RH  092%=      5-min Rain = 0
KFL1 100301Z 04006KT M06/M07 A3041 RMK A01 T10591070  RH  092%=      5-min Rain = 0
KFL1 100302Z 04006KT M06/M07 A3041 RMK A01 T10581071  RH  091%=      5-min Rain = 0
KFL1 100303Z 03007KT M06/M07 A3041 RMK A01 T10571071  RH  090%=      5-min Rain = 0
KFL1 100304Z 03007KT M06/M07 A3041 RMK A01 T10571071  RH  090%=      5-min Rain = 0
KFL1 100305Z 04006KT M06/M07 A3041 RMK A01 T10551071  RH  089%=      5-min Rain = 0
KFL1 100306Z 04005KT M05/M07 A3041 RMK A01 T10541071  RH  088%=      5-min Rain = 0
KFL1 100307Z 04005KT M06/M07 A3041 RMK A01 T10551072  RH  088%=      5-min Rain = 0
KFL1 100308Z 04005KT M06/M07 A3041 RMK A01 T10551072  RH  088%=      5-min Rain = 0
KFL1 100309Z 04005KT M06/M07 A3041 RMK A01 T10551072  RH  088%=      5-min Rain = 0
KFL1 100310Z 04005KT M06/M07 A3041 RMK A01 T10551072  RH  088%=      5-min Rain = 0
KFL1 100311Z 04005KT M05/M07 A3041 RMK A01 T10541072  RH  087%=      5-min Rain = 0
KFL1 100312Z 04005KT M05/M07 A3041 RMK A01 T10531072  RH  086%=      5-min Rain = 0
KFL1 100313Z 04005KT M05/M08 A3041 RMK A01 T10541075  RH  085%=      5-min Rain = 0
KFL1 100314Z 05005KT M06/M08 A3041 RMK A01 T10561078  RH  085%=      5-min Rain = 0
KFL1 100315Z 04005KT M06/M08 A3041 RMK A01 T10551077  RH  085%=      5-min Rain = 0
KFL1 100316Z 05006KT M06/M08 A3041 RMK A01 T10581081  RH  084%=      5-min Rain = 0
KFL1 100317Z 04006KT M06/M08 A3041 RMK A01 T10581081  RH  084%=      5-min Rain = 0
KFL1 100318Z 04007KT M06/M08 A3041 RMK A01 T10581081  RH  084%=      5-min Rain = 0
KFL1 100319Z 04006KT M06/M08 A3041 RMK A01 T10591081  RH  085%=      5-min Rain = 0
KFL1 100320Z 04007KT M06/M08 A3041 RMK A01 T10581079  RH  085%=      5-min Rain = 0
KFL1 100321Z 04006KT M06/M08 A3041 RMK A01 T10581080  RH  085%=      5-min Rain = 0
KFL1 100322Z 05006KT M06/M08 A3041 RMK A01 T10581080  RH  085%=      5-min Rain = 0
KFL1 100323Z 05005KT M06/M08 A3041 RMK A01 T10571078  RH  085%=      5-min Rain = 0
KFL1 100324Z 05005KT M06/M08 A3041 RMK A01 T10561076  RH  086%=      5-min Rain = 0
KFL1 100325Z 05005KT M06/M08 A3041 RMK A01 T10561075  RH  086%=      5-min Rain = 0
KFL1 100326Z 05006KT M06/M07 A3041 RMK A01 T10551074  RH  086%=      5-min Rain = 0
KFL1 100327Z 05005KT M06/M07 A3041 RMK A01 T10551073  RH  087%=      5-min Rain = 0
KFL1 100328Z 04005KT M05/M07 A3041 RMK A01 T10531071  RH  087%=      5-min Rain = 0
KFL1 100329Z 04005KT M05/M07 A3041 RMK A01 T10541073  RH  087%=      5-min Rain = 0
KFL1 100330Z 04005KT M06/M08 A3041 RMK A01 T10561079  RH  084%=      5-min Rain = 0
KFL1 100331Z 04004KT M07/M09 A3041 RMK A01 T10651091  RH  081%=      5-min Rain = 0
KFL1 100332Z 04005KT M07/M10 A3041 RMK A01 T10721101  RH  079%=      5-min Rain = 0
KFL1 100333Z 03005KT M08/M11 A3041 RMK A01 T10801109  RH  080%=      5-min Rain = 0
KFL1 100334Z 03004KT M08/M11 A3041 RMK A01 T10841107  RH  083%=      5-min Rain = 0
KFL1 100335Z 04004KT M09/M11 A3041 RMK A01 T10861107  RH  085%=      5-min Rain = 0
KFL1 100336Z 04005KT M09/M11 A3041 RMK A01 T10891110  RH  085%=      5-min Rain = 0
KFL1 100337Z 04004KT M09/M11 A3041 RMK A01 T10921111  RH  086%=      5-min Rain = 0
KFL1 100338Z 04004KT M09/M11 A3041 RMK A01 T10941109  RH  089%=      5-min Rain = 0
KFL1 100339Z 04005KT M09/M10 A3041 RMK A01 T10921104  RH  091%=      5-min Rain = 0
KFL1 100340Z 04005KT M09/M10 A3041 RMK A01 T10901099  RH  093%=      5-min Rain = 0
KFL1 100341Z 04006KT M09/M09 A3041 RMK A01 T10871094  RH  094%=      5-min Rain = 0
KFL1 100342Z 04006KT M08/M09 A3041 RMK A01 T10841090  RH  095%=      5-min Rain = 0
KFL1 100343Z 04006KT M08/M09 A3041 RMK A01 T10801086  RH  096%=      5-min Rain = 0
KFL1 100344Z 03005KT M08/M08 A3042 RMK A01 T10771082  RH  096%=      5-min Rain = 0
KFL1 100345Z 03005KT M07/M08 A3042 RMK A01 T10741079  RH  097%=      5-min Rain = 0
KFL1 100346Z 04005KT M08/M09 A3042 RMK A01 T10781088  RH  093%=      5-min Rain = 0
KFL1 100347Z 03005KT M09/M10 A3041 RMK A01 T10861103  RH  088%=      5-min Rain = 0
KFL1 100348Z 03005KT M10/M13 A3042 RMK A01 T11001125  RH  082%=      5-min Rain = 0
KFL1 100349Z 03005KT M11/M13 A3042 RMK A01 T11091134  RH  082%=      5-min Rain = 0
KFL1 100350Z 03005KT M11/M13 A3042 RMK A01 T11071125  RH  087%=      5-min Rain = 0
KFL1 100351Z 03005KT M10/M12 A3042 RMK A01 T11031115  RH  091%=      5-min Rain = 0
KFL1 100352Z 04005KT M10/M11 A3042 RMK A01 T10991107  RH  094%=      5-min Rain = 0
KFL1 100353Z 04005KT M10/M10 A3042 RMK A01 T10961102  RH  095%=      5-min Rain = 0
KFL1 100354Z 04005KT M09/M10 A3042 RMK A01 T10911097  RH  096%=      5-min Rain = 0
KFL1 100355Z 03005KT M09/M09 A3042 RMK A01 T10871092  RH  096%=      5-min Rain = 0
KFL1 100356Z 03006KT M09/M09 A3042 RMK A01 T10851091  RH  095%=      5-min Rain = 0
KFL1 100357Z 03006KT M09/M10 A3042 RMK A01 T10881098  RH  092%=      5-min Rain = 0
KFL1 100358Z 03005KT M09/M11 A3042 RMK A01 T10921105  RH  090%=      5-min Rain = 0
KFL1 100359Z 04005KT M09/M11 A3042 RMK A01 T10941111  RH  088%=      5-min Rain = 0
KFL1 100400Z 05003KT M10/M11 A3042 RMK A01 T10981114  RH  088%=      5-min Rain = 0
KFL1 100401Z 05003KT M10/M11 A3042 RMK A01 T10991113  RH  089%=      5-min Rain = 0
KFL1 100402Z 04004KT M10/M11 A3042 RMK A01 T10951106  RH  092%=      5-min Rain = 0
KFL1 100403Z 03004KT M09/M10 A3042 RMK A01 T10921101  RH  093%=      5-min Rain = 0
KFL1 100404Z 03004KT M09/M10 A3042 RMK A01 T10931101  RH  094%=      5-min Rain = 0
KFL1 100405Z 03005KT M09/M10 A3042 RMK A01 T10921102  RH  092%=      5-min Rain = 0
KFL1 100406Z 03005KT M10/M11 A3042 RMK A01 T10971110  RH  090%=      5-min Rain = 0
KFL1 100407Z 03005KT M10/M11 A3042 RMK A01 T10971110  RH  090%=      5-min Rain = 0
KFL1 100408Z 04005KT M09/M10 A3042 RMK A01 T10921101  RH  093%=      5-min Rain = 0
KFL1 100409Z 03004KT M09/M09 A3042 RMK A01 T10851091  RH  095%=      5-min Rain = 0
KFL1 100410Z 03005KT M08/M09 A3042 RMK A01 T10811086  RH  096%=      5-min Rain = 0
KFL1 100411Z 03006KT M08/M08 A3042 RMK A01 T10771082  RH  096%=      5-min Rain = 0
KFL1 100412Z 03006KT M08/M08 A3042 RMK A01 T10761083  RH  095%=      5-min Rain = 0
KFL1 100413Z 03006KT M08/M10 A3042 RMK A01 T10821097  RH  089%=      5-min Rain = 0
KFL1 100414Z 03006KT M09/M11 A3042 RMK A01 T10871107  RH  086%=      5-min Rain = 0
KFL1 100415Z 03006KT M09/M12 A3042 RMK A01 T10921115  RH  084%=      5-min Rain = 0
KFL1 100416Z 03005KT M10/M12 A3042 RMK A01 T10971120  RH  084%=      5-min Rain = 0
KFL1 100417Z 03006KT M10/M12 A3042 RMK A01 T10991120  RH  084%=      5-min Rain = 0
KFL1 100418Z 03007KT M10/M12 A3042 RMK A01 T10991119  RH  085%=      5-min Rain = 0
KFL1 100419Z 03007KT M10/M12 A3042 RMK A01 T10991117  RH  087%=      5-min Rain = 0
KFL1 100420Z 03007KT M10/M11 A3042 RMK A01 T10971113  RH  088%=      5-min Rain = 0
KFL1 100421Z 04007KT M09/M11 A3042 RMK A01 T10931109  RH  088%=      5-min Rain = 0
KFL1 100422Z 04008KT M09/M10 A3042 RMK A01 T10861101  RH  089%=      5-min Rain = 0
KFL1 100423Z 04007KT M08/M10 A3042 RMK A01 T10801096  RH  088%=      5-min Rain = 0
KFL1 100424Z 04007KT M08/M10 A3042 RMK A01 T10781099  RH  084%=      5-min Rain = 0
KFL1 100425Z 04007KT M08/M11 A3042 RMK A01 T10771105  RH  081%=      5-min Rain = 0
KFL1 100426Z 05006KT M08/M11 A3042 RMK A01 T10771110  RH  077%=      5-min Rain = 0
KFL1 100427Z 06006KT M08/M12 A3042 RMK A01 T10801116  RH  075%=      5-min Rain = 0
KFL1 100428Z 06006KT M08/M12 A3042 RMK A01 T10831121  RH  074%=      5-min Rain = 0
KFL1 100429Z 05006KT M08/M12 A3042 RMK A01 T10841124  RH  073%=      5-min Rain = 0
KFL1 100430Z 05007KT M09/M13 A3042 RMK A01 T10871127  RH  073%=      5-min Rain = 0
KFL1 100431Z 05009KT M09/M13 A3042 RMK A01 T10871128  RH  072%=      5-min Rain = 0
KFL1 100432Z 05009KT M09/M13 A3042 RMK A01 T10891131  RH  071%=      5-min Rain = 0
KFL1 100433Z 04009KT M09/M13 A3042 RMK A01 T10901132  RH  071%=      5-min Rain = 0
KFL1 100434Z 05009KT M09/M13 A3042 RMK A01 T10901133  RH  071%=      5-min Rain = 0
KFL1 100435Z 05008KT M09/M13 A3042 RMK A01 T10891133  RH  070%=      5-min Rain = 0
KFL1 100436Z 04009KT M09/M13 A3042 RMK A01 T10901134  RH  070%=      5-min Rain = 0
KFL1 100437Z 04008KT M09/M14 A3042 RMK A01 T10911135  RH  070%=      5-min Rain = 0
KFL1 100438Z 05007KT M09/M14 A3042 RMK A01 T10911135  RH  070%=      5-min Rain = 0
KFL1 100439Z 04008KT M09/M13 A3042 RMK A01 T10901133  RH  071%=      5-min Rain = 0
KFL1 100440Z 04008KT M09/M13 A3042 RMK A01 T10901134  RH  071%=      5-min Rain = 0
KFL1 100441Z 04009KT M09/M13 A3042 RMK A01 T10891133  RH  071%=      5-min Rain = 0
KFL1 100442Z 04009KT M09/M13 A3042 RMK A01 T10881133  RH  070%=      5-min Rain = 0
KFL1 100443Z 04009KT M09/M13 A3042 RMK A01 T10881134  RH  070%=      5-min Rain = 0
KFL1 100444Z 03010KT M09/M13 A3042 RMK A01 T10861132  RH  069%=      5-min Rain = 0
KFL1 100445Z 04010KT M09/M13 A3042 RMK A01 T10861129  RH  071%=      5-min Rain = 0
KFL1 100446Z 03010KT M08/M12 A3041 RMK A01 T10821120  RH  074%=      5-min Rain = 0
KFL1 100447Z 03009KT M08/M11 A3041 RMK A01 T10751107  RH  078%=      5-min Rain = 0
KFL1 100448Z 04009KT M07/M10 A3041 RMK A01 T10691099  RH  079%=      5-min Rain = 0
KFL1 100449Z 04008KT M07/M10 A3041 RMK A01 T10671099  RH  077%=      5-min Rain = 0
KFL1 100450Z 04007KT M07/M10 A3041 RMK A01 T10651102  RH  075%=      5-min Rain = 0
KFL1 100451Z 04008KT M06/M11 A3042 RMK A01 T10641107  RH  071%=      5-min Rain = 0
KFL1 100452Z 04008KT M06/M11 A3042 RMK A01 T10641113  RH  069%=      5-min Rain = 0
KFL1 100453Z 04007KT M07/M12 A3042 RMK A01 T10671119  RH  067%=      5-min Rain = 0
KFL1 100454Z 05006KT M07/M13 A3042 RMK A01 T10711128  RH  063%=      5-min Rain = 0
KFL1 100455Z 06007KT M08/M14 A3042 RMK A01 T10751138  RH  061%=      5-min Rain = 0
KFL1 100456Z 06007KT M08/M14 A3042 RMK A01 T10781143  RH  060%=      5-min Rain = 0
KFL1 100457Z 05007KT M08/M15 A3042 RMK A01 T10811146  RH  060%=      5-min Rain = 0
KFL1 100458Z 05008KT M09/M15 A3042 RMK A01 T10851147  RH  061%=      5-min Rain = 0
KFL1 100459Z 05009KT M09/M15 A3042 RMK A01 T10881148  RH  062%=      5-min Rain = 0
KFL1 100500Z 05009KT M09/M15 A3042 RMK A01 T10871147  RH  062%=      5-min Rain = 0
KFL1 100501Z 05008KT M09/M15 A3042 RMK A01 T10871147  RH  062%=      5-min Rain = 0
KFL1 100502Z 05007KT M09/M15 A3042 RMK A01 T10861148  RH  061%=      5-min Rain = 0
KFL1 100503Z 05009KT M09/M15 A3042 RMK A01 T10851148  RH  060%=      5-min Rain = 0
KFL1 100504Z 05009KT M09/M15 A3042 RMK A01 T10851149  RH  060%=      5-min Rain = 0
KFL1 100505Z 05010KT M09/M15 A3042 RMK A01 T10871151  RH  060%=      5-min Rain = 0
KFL1 100506Z 05010KT M09/M15 A3042 RMK A01 T10861151  RH  059%=      5-min Rain = 0
KFL1 100507Z 05009KT M08/M15 A3042 RMK A01 T10841150  RH  059%=      5-min Rain = 0
KFL1 100508Z 05011KT M08/M15 A3042 RMK A01 T10841149  RH  059%=      5-min Rain = 0
KFL1 100509Z 04011KT M08/M15 A3042 RMK A01 T10831148  RH  059%=      5-min Rain = 0
KFL1 100510Z 04011KT M08/M15 A3042 RMK A01 T10831148  RH  059%=      5-min Rain = 0
KFL1 100511Z 04011KT M08/M15 A3042 RMK A01 T10821147  RH  060%=      5-min Rain = 0
KFL1 100512Z 04010KT M08/M15 A3042 RMK A01 T10811146  RH  060%=      5-min Rain = 0
KFL1 100513Z 04009KT M08/M15 A3042 RMK A01 T10801145  RH  060%=      5-min Rain = 0
KFL1 100514Z 04009KT M08/M14 A3042 RMK A01 T10791143  RH  060%=      5-min Rain = 0
KFL1 100515Z 04009KT M08/M14 A3042 RMK A01 T10771140  RH  061%=      5-min Rain = 0
KFL1 100516Z 04009KT M08/M14 A3042 RMK A01 T10781140  RH  061%=      5-min Rain = 0
KFL1 100517Z 04009KT M08/M14 A3042 RMK A01 T10761137  RH  062%=      5-min Rain = 0
KFL1 100518Z 04008KT M08/M13 A3042 RMK A01 T10761131  RH  065%=      5-min Rain = 0
KFL1 100519Z 04009KT M07/M12 A3042 RMK A01 T10731119  RH  070%=      5-min Rain = 0
KFL1 100520Z 04008KT M07/M11 A3042 RMK A01 T10691107  RH  074%=      5-min Rain = 0
KFL1 100521Z 04008KT M07/M10 A3042 RMK A01 T10671100  RH  078%=      5-min Rain = 0
KFL1 100522Z 04007KT M07/M10 A3042 RMK A01 T10661095  RH  080%=      5-min Rain = 0
KFL1 100523Z 04008KT M06/M09 A3042 RMK A01 T10641091  RH  081%=      5-min Rain = 0
KFL1 100524Z 03008KT M06/M09 A3042 RMK A01 T10631088  RH  082%=      5-min Rain = 0
KFL1 100525Z 04007KT M06/M08 A3042 RMK A01 T10611084  RH  084%=      5-min Rain = 0
KFL1 100526Z 04007KT M06/M08 A3042 RMK A01 T10601081  RH  085%=      5-min Rain = 0
KFL1 100527Z 05007KT M06/M08 A3042 RMK A01 T10601080  RH  086%=      5-min Rain = 0
KFL1 100528Z 04007KT M06/M08 A3042 RMK A01 T10591079  RH  086%=      5-min Rain = 0
KFL1 100529Z 04007KT M06/M08 A3042 RMK A01 T10601081  RH  085%=      5-min Rain = 0
KFL1 100530Z 04007KT M06/M08 A3042 RMK A01 T10611083  RH  085%=      5-min Rain = 0
KFL1 100531Z 04007KT M06/M08 A3042 RMK A01 T10621083  RH  085%=      5-min Rain = 0
KFL1 100532Z 04008KT M06/M08 A3042 RMK A01 T10621081  RH  086%=      5-min Rain = 0
KFL1 100533Z 04007KT M06/M08 A3042 RMK A01 T10601078  RH  087%=      5-min Rain = 0
KFL1 100534Z 04008KT M06/M08 A3042 RMK A01 T10611079  RH  087%=      5-min Rain = 0
KFL1 100535Z 04008KT M06/M08 A3042 RMK A01 T10601078  RH  087%=      5-min Rain = 0
KFL1 100536Z 04007KT M06/M08 A3042 RMK A01 T10581076  RH  087%=      5-min Rain = 0
KFL1 100537Z 05008KT M06/M08 A3042 RMK A01 T10561075  RH  086%=      5-min Rain = 0
KFL1 100538Z 05008KT M06/M08 A3042 RMK A01 T10561078  RH  085%=      5-min Rain = 0
KFL1 100539Z 04007KT M06/M08 A3042 RMK A01 T10561079  RH  084%=      5-min Rain = 0
KFL1 100540Z 04007KT M06/M08 A3042 RMK A01 T10561080  RH  083%=      5-min Rain = 0
KFL1 100541Z 04007KT M06/M08 A3043 RMK A01 T10551080  RH  083%=      5-min Rain = 0
KFL1 100542Z 04007KT M06/M08 A3043 RMK A01 T10551080  RH  083%=      5-min Rain = 0
KFL1 100543Z 05007KT M05/M08 A3043 RMK A01 T10541079  RH  083%=      5-min Rain = 0
KFL1 100544Z 04008KT M05/M08 A3043 RMK A01 T10531078  RH  083%=      5-min Rain = 0
KFL1 100545Z 04008KT M05/M08 A3043 RMK A01 T10531077  RH  083%=      5-min Rain = 0
KFL1 100546Z 03007KT M05/M08 A3043 RMK A01 T10531076  RH  083%=      5-min Rain = 0
KFL1 100547Z 03006KT M05/M08 A3043 RMK A01 T10521075  RH  084%=      5-min Rain = 0
KFL1 100548Z 03007KT M05/M08 A3043 RMK A01 T10541084  RH  080%=      5-min Rain = 0
KFL1 100549Z 03006KT M06/M10 A3043 RMK A01 T10621095  RH  078%=      5-min Rain = 0
KFL1 100550Z 03007KT M07/M10 A3043 RMK A01 T10681098  RH  079%=      5-min Rain = 0
KFL1 100551Z 03006KT M07/M10 A3043 RMK A01 T10721099  RH  081%=      5-min Rain = 0
KFL1 100552Z 04005KT M07/M10 A3043 RMK A01 T10721096  RH  083%=      5-min Rain = 0
KFL1 100553Z 04005KT M07/M09 A3043 RMK A01 T10701090  RH  086%=      5-min Rain = 0
KFL1 100554Z 03006KT M07/M09 A3043 RMK A01 T10681087  RH  086%=      5-min Rain = 0
KFL1 100555Z 04005KT M07/M09 A3043 RMK A01 T10681089  RH  085%=      5-min Rain = 0
KFL1 100556Z 04006KT M07/M09 A3043 RMK A01 T10671086  RH  087%=      5-min Rain = 0
KFL1 100557Z 03006KT M06/M08 A3043 RMK A01 T10621080  RH  087%=      5-min Rain = 0
KFL1 100558Z 04004KT M06/M08 A3043 RMK A01 T10611083  RH  084%=      5-min Rain = 0
KFL1 100559Z 05004KT M06/M09 A3043 RMK A01 T10611085  RH  083%=      5-min Rain = 0

Page generated in 0.0446 seconds.